GFSNE_con_3kmhel_000.txt.gz
Helicity
73 86 115 129 136 144 189 203 221 237 230 183 141 107 108 117 93 168 137 33 63 50 26 80 91 59 81 85 58 36 24 4 12 15 31 1 4 106
123 117 121 118 150 159 154 162 170 181 223 185 142 85 80 65 97 110 82 31 16 82 26 48 49 92 73 51 20 18 86 48 25 -3 9 -1 70 15
104 102 119 120 162 163 157 146 165 162 220 190 161 112 76 54 39 25 18 26 12 20 2 63 62 24 79 86 73 53 81 78 125 82 30 53 21 23
119 139 150 162 154 141 149 155 164 150 178 175 151 133 95 82 71 46 14 15 -9 -18 9 10 16 10 13 68 87 101 117 120 153 132 96 39 61 75
140 155 151 157 157 165 167 159 154 150 136 141 148 134 124 107 83 63 37 7 4 15 23 19 4 35 35 32 92 82 93 122 130 138 138 109 76 75
162 162 161 156 160 162 146 122 113 113 111 128 122 111 92 79 89 82 14 -9 -6 13 56 37 98 60 81 93 153 142 133 151 138 150 153 139 146 92
160 162 156 158 113 100 130 107 89 107 118 109 114 111 87 94 83 67 30 -12 -40 -19 37 6 14 39 89 137 110 134 152 93 116 133 147 124 147 117
180 156 149 126 124 84 53 46 47 73 58 99 125 122 106 122 113 101 57 -2 -41 5 -11 -26 0 17 52 70 83 68 107 85 71 78 70 98 85 85
168 153 148 133 106 96 74 46 58 32 57 98 121 121 128 120 86 67 0 -38 -37 -34 -35 -1 1 12 33 58 82 88 112 106 96 48 56 69 73 0
141 128 110 92 88 75 79 85 77 110 94 102 106 114 118 77 36 3 -41 -38 -41 -29 -11 16 -26 -1 23 38 85 131 147 95 60 76 93 89 83 19
116 96 90 93 60 37 73 100 106 89 46 48 29 27 3 1 14 -44 -59 -66 -59 -18 -17 -22 -16 -4 -11 -24 65 76 97 98 143 162 132 90 54 29
100 102 85 82 44 30 84 93 81 66 65 41 48 39 23 23 -1 -32 -73 -68 -65 -48 -33 23 -26 0 -44 6 30 29 99 196 231 147 114 106 78 174
143 139 136 75 68 44 33 88 93 59 45 63 64 70 61 30 -11 -62 -61 -73 -57 -25 -53 -35 -46 -13 5 30 14 36 55 183 302 264 262 251 233 314
134 151 126 75 52 41 59 50 26 39 79 84 70 16 -30 -37 -50 -40 -16 -18 -19 -14 -9 -37 -53 -13 -1 -5 23 73 56 104 247 234 345 344 321 425
138 136 79 57 47 51 38 24 31 76 84 17 15 7 -12 -2 8 0 -8 1 6 4 -15 -37 -44 -7 -1 31 51 77 96 116 288 257 328 442 528 584
138 137 84 64 49 44 40 47 62 -2 -4 28 18 13 4 5 8 4 -19 -7 -24 -38 -58 26 -10 -5 2 22 51 87 94 130 239 309 298 313 340 403
121 109 106 88 71 53 52 12 16 22 39 8 -8 -3 48 54 48 40 66 51 15 -10 -11 -13 -6 11 36 49 59 69 99 132 210 186 209 286 312 321
111 107 95 82 53 11 19 37 56 74 39 18 42 74 72 85 121 145 99 36 14 8 10 11 47 59 46 80 144 105 153 202 223 213 199 224 292 310
96 92 87 53 12 30 40 68 106 86 64 87 110 94 106 120 135 106 46 44 39 57 76 81 95 91 66 123 173 231 187 234 230 297 244 223 268 343
80 81 42 12 28 47 75 100 100 102 132 146 136 140 134 142 152 91 69 54 91 134 142 130 103 85 69 101 153 197 200 206 225 235 227 229 203 216
76 33 16 25 49 80 108 120 148 181 171 179 187 174 162 158 88 86 91 106 113 104 104 91 87 84 87 97 27 43 59 87 74 71 56 92 90 95
23 19 36 53 83 113 132 181 211 224 225 216 187 162 144 119 97 92 78 73 55 54 45 35 17 5 -1 -22 3 27 55 60 71 88 85 89 52 14
3 38 69 95 115 139 215 226 226 239 223 175 139 116 101 74 62 59 50 33 25 15 6 -6 -5 0 15 15 23 40 53 73 71 78 95 117 59 84

GFSNE_con_3kmhel_006.txt.gz
Helicity
134 147 158 166 170 173 190 195 214 184 200 222 201 173 211 178 138 154 105 62 61 45 47 65 65 93 91 87 110 124 111 88 79 96 70 23 52 -39
138 151 149 162 174 190 203 233 259 289 260 237 249 224 168 165 132 112 100 49 40 47 35 41 43 47 71 81 79 86 129 101 107 82 85 65 63 49
147 142 153 153 186 210 213 238 264 276 306 278 232 175 149 127 105 95 98 90 73 40 25 46 39 42 39 46 62 70 45 95 128 142 127 99 97 133
156 151 155 172 174 182 221 217 252 240 249 235 222 205 174 144 136 111 81 67 83 63 35 41 25 31 45 47 46 53 63 36 67 92 120 140 173 146
154 156 149 152 155 184 196 204 201 208 219 254 254 235 205 180 186 151 102 88 93 32 44 40 55 49 43 59 54 32 39 44 141 112 156 173 160 152
144 136 133 139 154 162 169 160 177 229 233 249 258 251 194 142 172 168 83 59 62 70 71 42 35 33 44 60 62 65 57 31 67 107 150 164 168 171
143 126 134 120 78 93 143 177 199 212 219 233 221 213 214 190 150 122 94 83 112 114 88 97 51 67 87 50 51 75 67 59 47 101 113 158 157 170
131 125 131 115 117 114 124 96 107 158 205 199 172 168 147 166 191 144 140 142 94 104 75 92 104 102 75 48 35 73 83 60 42 83 90 134 114 154
126 135 142 155 141 139 113 97 144 140 132 160 154 161 153 159 134 143 136 132 133 121 122 98 114 121 -10 -27 -5 5 37 32 77 81 63 103 108 124
131 137 144 143 132 103 113 158 158 147 134 121 143 140 131 99 82 57 62 35 129 142 120 32 -13 -9 -22 -50 -25 0 30 54 43 48 72 87 111 137
149 139 130 124 81 64 105 143 158 157 84 71 58 52 33 15 12 -9 63 20 19 2 -16 11 19 5 -6 33 96 68 36 70 44 16 28 43 48 87
152 154 99 94 64 37 95 130 132 103 105 90 75 53 61 74 20 24 19 15 16 45 -25 -36 -9 -12 10 51 108 82 65 98 91 55 42 24 20 -31
165 157 136 65 46 60 63 99 96 65 63 53 55 65 58 37 30 35 40 44 53 82 78 -25 -22 13 11 45 106 90 94 119 111 89 119 53 77 -17
151 137 130 53 58 52 67 15 7 -39 -84 40 48 29 -30 -15 35 63 98 119 135 140 125 83 33 25 32 33 23 64 127 164 143 186 69 92 104 110
117 88 49 48 65 61 14 -15 -29 -29 48 33 40 36 56 74 105 122 122 118 121 141 76 -24 -45 -42 -78 -31 89 125 171 183 242 124 80 143 101 157
94 117 78 77 0 6 -23 -7 31 64 5 2 67 93 105 108 118 112 137 159 149 122 38 29 -27 -18 -11 42 150 178 177 144 129 115 144 165 289 268
81 93 80 -72 -17 -16 12 58 78 31 44 82 110 126 133 136 149 145 163 120 97 97 70 39 25 30 26 71 125 104 131 115 93 111 193 184 339 435
83 42 -42 -33 -5 23 58 85 96 118 123 129 124 143 155 153 154 128 132 111 101 118 122 80 67 70 36 69 127 147 151 153 155 161 170 132 187 335
96 -3 -20 6 37 69 88 125 181 169 147 129 154 158 154 152 120 153 160 124 117 123 137 87 96 88 98 123 180 165 149 171 152 206 245 243 192 181
20 -7 16 40 76 102 158 188 184 156 141 155 138 148 163 177 185 168 152 121 109 102 116 72 85 134 136 157 213 182 107 182 181 194 243 287 294 194
2 22 46 88 114 164 190 175 150 140 103 127 151 167 181 187 184 131 96 69 59 110 93 43 93 97 122 151 179 217 209 169 173 202 236 264 273 272
27 72 91 97 157 191 179 161 153 134 139 153 174 184 174 130 88 90 102 85 78 85 56 70 73 56 89 115 150 171 167 160 166 163 177 179 168 182
87 91 103 157 194 190 171 158 145 133 146 171 189 190 141 68 57 69 56 37 45 16 -1 8 44 37 41 80 102 114 104 119 145 169 183 77 112 120

GFSNE_con_3kmhel_009.txt.gz
Helicity
124 137 166 156 151 165 195 205 229 255 238 173 163 122 147 137 119 118 125 81 53 54 60 63 78 73 83 105 112 121 91 78 106 103 73 128 42 38
128 157 162 154 166 171 182 208 234 239 270 190 161 150 134 137 131 120 132 48 53 45 45 48 74 63 61 59 75 78 96 103 114 99 69 64 73 106
147 166 163 147 164 172 180 197 222 253 246 192 175 142 132 140 155 134 117 103 105 39 32 49 40 39 39 35 37 51 65 63 61 79 90 40 67 80
153 155 159 155 153 158 189 201 219 204 216 190 174 158 150 154 155 108 101 108 119 92 56 33 30 33 33 39 42 60 72 74 87 52 14 26 62 136
156 159 145 145 156 177 185 204 185 173 162 174 188 199 211 179 168 140 148 131 143 71 47 25 23 20 27 71 58 65 85 93 98 96 87 59 60 94
152 148 141 153 164 164 163 164 163 162 158 182 202 212 227 189 131 129 105 128 129 119 67 39 16 37 39 25 26 38 54 66 55 88 111 37 55 77
152 147 144 118 104 133 175 155 138 147 164 180 210 223 140 101 91 126 148 139 138 115 91 140 86 101 99 45 32 30 56 63 75 56 105 92 60 54
155 150 161 122 115 112 89 72 75 128 143 201 163 167 129 115 139 177 170 104 67 106 123 128 121 114 108 103 32 27 56 51 58 70 122 102 88 104
172 178 174 146 108 121 80 58 81 79 76 130 142 133 122 138 151 90 57 122 143 143 84 76 126 121 136 79 27 17 11 33 45 55 66 87 94 81
173 173 145 116 99 72 87 92 109 103 89 109 114 134 116 97 57 46 7 41 130 136 91 77 82 99 60 78 73 36 17 3 13 38 67 89 97 64
184 155 123 114 64 43 56 93 101 82 30 48 46 46 25 26 33 -32 37 -12 11 71 118 124 138 123 75 147 171 57 54 52 22 16 -9 -3 23 31
167 138 75 83 49 12 59 85 72 61 4 55 30 39 61 64 1 3 -7 5 41 85 155 92 94 54 -18 103 121 114 126 117 86 55 28 25 25 -23
149 140 125 52 37 41 66 87 5 -56 -75 -86 35 76 59 51 48 60 94 123 136 178 189 66 115 77 -10 -3 124 154 196 184 120 102 112 96 81 73
134 138 137 62 50 58 -54 -19 -16 -37 4 54 32 61 67 110 125 143 164 176 184 199 194 119 127 85 -6 22 75 145 153 151 140 156 171 127 101 95
121 87 97 59 56 50 -7 -10 -14 11 19 64 102 116 128 164 190 195 195 189 180 162 123 107 143 115 56 89 177 198 159 105 131 189 101 84 62 36
78 102 64 58 46 -2 16 37 13 10 36 79 123 153 158 173 171 162 181 173 165 183 108 86 85 100 79 110 159 213 192 106 133 126 138 171 186 126
76 87 81 59 6 42 64 54 72 85 91 112 124 157 168 165 164 140 163 157 168 196 146 104 76 99 119 158 219 238 197 121 115 144 183 197 265 235
104 109 -5 -1 39 50 72 138 140 122 120 129 152 164 168 158 156 153 152 166 157 148 144 118 129 134 117 149 267 271 163 167 173 147 169 150 189 356
100 -19 4 35 59 91 139 145 148 144 131 127 163 149 144 152 131 161 158 128 123 119 120 128 151 157 165 199 236 145 147 198 206 194 161 144 160 206
-0 -2 37 65 100 138 153 144 146 143 129 146 139 146 149 142 144 127 102 106 88 78 103 105 125 139 157 194 244 246 178 196 206 204 237 191 208 182
17 47 76 103 137 159 157 152 137 119 82 117 158 157 149 125 124 79 72 53 41 56 41 71 121 102 120 134 154 201 194 199 138 144 195 211 244 263
58 78 108 133 156 174 168 156 146 127 130 153 186 164 133 110 95 48 44 40 34 45 18 39 62 95 139 119 116 135 149 157 141 101 86 85 150 194
92 124 147 165 183 182 167 152 140 157 165 193 214 202 165 132 58 20 12 4 7 5 -3 7 39 54 77 94 65 86 120 157 163 156 182 141 128 149

GFSNE_con_3kmhel_012.txt.gz
Helicity
96 104 125 142 166 173 207 244 285 307 298 265 226 175 175 158 122 107 124 81 66 66 98 114 129 116 107 111 103 58 52 132 93 136 139 104 68 70
107 123 136 148 173 175 199 228 257 293 363 236 189 155 146 151 115 96 127 65 41 62 62 74 93 100 66 94 118 103 104 100 84 67 66 56 45 53
114 138 148 154 160 174 188 215 247 253 279 224 185 155 132 122 125 117 109 95 99 36 42 44 53 80 89 84 96 90 74 72 81 85 92 82 64 69
146 161 157 148 156 168 197 205 218 222 249 200 180 162 145 137 116 127 100 96 73 56 18 27 40 24 33 38 37 55 55 45 77 89 100 75 53 39
157 155 152 165 168 168 181 212 208 177 178 192 209 197 202 167 150 76 50 56 83 54 30 22 23 21 21 31 41 64 71 73 75 81 78 81 95 97
150 168 176 177 165 157 170 175 192 182 175 200 217 163 168 163 93 74 48 86 142 125 84 97 31 24 13 18 19 32 38 44 40 38 30 36 45 46
179 190 186 164 146 156 172 181 155 160 193 177 170 178 177 71 52 61 125 158 108 114 110 126 97 132 136 60 31 23 29 31 29 28 42 51 41 57
170 181 204 147 138 111 108 83 78 129 134 147 175 125 81 91 113 149 113 66 -6 82 127 125 134 133 140 135 29 -6 -10 -9 -18 -8 24 38 32 47
174 188 186 179 137 140 83 43 79 67 102 141 107 111 118 133 99 57 98 130 150 147 135 29 148 147 168 127 47 30 21 9 1 -1 27 28 41 40
173 172 171 145 122 97 100 123 143 197 76 96 131 118 83 -16 2 20 -23 23 154 177 68 75 160 145 135 141 111 84 48 2 -5 -1 -6 2 7 34
156 171 127 114 70 36 103 110 88 98 70 48 30 18 21 12 5 -34 -18 -14 74 159 139 127 185 170 131 223 173 121 29 32 19 7 -2 -15 43 107
160 134 55 73 41 71 73 96 94 70 25 45 60 55 47 72 28 31 85 104 129 191 178 138 182 189 124 247 130 132 111 101 81 67 39 27 8 -28
151 128 112 49 45 44 39 86 60 -31 57 49 78 97 93 95 109 121 145 146 170 231 199 102 173 154 150 127 233 167 103 145 151 112 85 72 55 22
145 129 109 52 46 37 52 -7 -15 10 73 80 87 88 109 146 155 152 156 163 170 192 190 165 195 159 148 172 202 171 173 197 169 156 171 164 123 71
127 90 78 64 51 50 -11 -9 -18 37 66 80 79 116 148 169 177 180 178 177 182 194 194 161 193 157 137 187 267 279 219 158 101 145 144 128 94 67
81 115 80 64 7 9 50 33 51 43 55 66 92 141 140 140 152 156 184 184 201 192 150 141 132 154 142 184 241 323 275 144 192 204 176 147 124 73
76 96 88 36 59 85 60 77 75 62 63 69 78 110 118 118 148 146 178 168 182 197 187 150 160 177 162 217 241 274 265 207 207 167 169 172 157 145
92 98 -24 47 81 64 91 110 98 71 74 72 100 116 135 129 136 152 150 157 160 170 160 166 194 170 155 150 233 290 191 177 195 164 152 150 189 240
95 -44 38 90 83 80 105 105 92 104 77 88 124 164 152 155 106 136 143 139 142 143 136 166 173 162 176 179 246 197 156 135 181 179 171 187 244 345
41 48 97 98 107 130 147 148 159 163 158 169 173 156 126 107 122 115 112 115 116 77 122 133 139 144 134 151 198 279 178 100 120 175 226 245 289 389
85 88 98 118 139 159 169 163 156 156 113 146 188 198 109 63 85 72 79 38 30 34 58 102 159 112 107 83 96 121 142 117 40 47 153 220 312 551
70 92 116 132 148 161 162 152 158 152 162 177 189 180 150 85 54 57 26 17 21 22 20 64 91 96 70 42 44 86 115 123 134 121 134 112 120 368
92 107 132 161 181 178 167 170 176 184 172 182 196 192 153 103 74 44 -5 -9 -5 -7 -6 31 46 52 61 47 40 80 125 115 127 119 156 181 134 143

GFSNE_con_3kmhel_015.txt.gz
Helicity
111 109 126 135 145 160 172 183 205 212 189 235 177 161 149 166 134 119 144 104 86 95 107 108 117 104 105 106 122 147 154 166 106 104 93 94 112 122
119 128 140 153 152 150 170 178 192 226 322 236 196 173 158 178 141 118 159 84 75 91 82 70 47 63 80 94 99 110 128 75 64 80 58 40 59 105
128 134 137 138 160 167 156 155 175 205 263 247 218 184 187 182 153 104 92 145 138 37 38 36 37 58 39 51 74 79 71 88 104 143 125 111 100 35
125 138 139 157 161 150 161 171 202 222 257 203 198 199 185 164 131 125 140 82 75 5 -15 6 32 14 32 54 43 38 36 44 36 17 21 23 28 50
124 137 143 148 152 165 185 202 194 158 181 210 228 220 183 177 148 182 118 98 61 6 24 37 18 32 39 27 28 36 43 58 67 74 84 84 76 73
136 149 145 161 175 187 176 166 183 182 187 212 208 205 196 170 196 159 99 75 126 119 82 85 59 38 23 15 19 25 35 41 40 44 40 37 32 33
129 132 154 170 176 177 180 183 168 174 191 187 190 196 225 165 126 114 148 35 149 206 138 132 123 151 154 75 42 -3 -9 13 14 18 30 29 25 21
129 152 183 163 144 119 105 80 78 135 129 144 191 170 138 157 126 116 133 12 26 166 130 143 146 90 125 105 70 18 -7 -32 -40 -34 -37 -23 30 40
157 180 185 157 123 140 94 53 97 125 100 118 156 158 111 126 97 67 108 144 176 186 59 152 167 162 170 150 57 31 8 -7 -17 -23 -28 -30 -24 -23
176 170 152 134 111 82 113 159 101 99 116 124 114 122 95 50 37 74 92 151 240 234 170 216 209 211 182 182 125 76 43 13 -13 -46 -38 -19 -22 -3
158 134 93 101 64 41 117 123 114 111 85 47 52 45 51 37 40 77 113 119 200 213 161 195 224 213 210 253 202 119 76 25 -13 -11 1 16 12 8
147 107 85 86 37 66 97 100 107 63 107 95 70 68 79 107 50 87 130 163 195 230 200 188 198 184 202 287 198 175 101 140 51 28 30 37 28 -12
148 135 116 55 47 45 38 95 89 78 66 47 100 126 126 124 121 126 153 172 176 238 196 130 218 214 198 229 265 235 153 152 131 96 62 44 40 36
137 115 111 48 43 36 50 38 29 23 78 110 119 115 107 120 127 139 156 176 200 219 213 191 253 241 281 307 319 239 183 190 169 136 119 127 94 53
127 83 77 58 46 53 40 17 14 91 107 116 100 110 120 125 134 151 168 168 179 202 207 217 231 275 280 287 322 295 196 170 82 133 145 144 164 157
90 126 76 64 -8 56 70 77 100 97 70 95 110 125 142 145 137 127 151 167 168 186 176 163 183 202 217 226 246 292 241 145 231 227 171 136 123 97
90 100 93 82 86 82 83 85 99 102 114 124 125 145 176 160 156 130 153 156 159 191 217 198 159 175 182 183 241 271 282 235 174 138 123 104 133 103
97 92 78 88 80 88 93 98 127 102 137 133 133 156 182 173 150 161 139 141 147 175 183 168 171 161 152 118 213 298 203 201 181 150 112 121 162 215
91 93 91 90 98 108 115 135 139 148 138 148 154 172 135 126 41 65 113 144 142 150 128 139 134 121 148 132 153 74 141 147 110 187 238 192 210 300
85 94 92 95 112 129 141 148 151 147 127 137 142 149 160 140 63 57 57 61 111 101 96 92 90 100 81 90 80 187 151 105 75 76 278 354 282 200
85 94 95 112 137 150 149 146 145 149 104 108 147 166 165 147 53 42 41 24 26 25 35 59 96 80 70 18 21 75 103 90 45 22 177 313 417 475
95 94 108 134 160 167 165 172 184 182 171 169 172 168 160 153 134 59 46 48 30 20 23 50 71 46 15 16 17 59 93 118 109 90 172 192 230 376
97 99 130 158 174 178 178 178 184 202 189 194 191 176 159 137 122 118 91 44 17 -2 -7 15 27 6 17 30 33 61 95 129 167 139 125 331 284 233

GFSNE_con_3kmhel_018.txt.gz
Helicity
116 110 130 131 148 158 181 185 178 163 131 201 143 158 115 108 79 79 108 61 70 79 70 79 108 130 138 138 140 151 137 122 121 122 134 120 109 121
115 125 128 155 167 189 202 206 219 226 298 234 179 145 125 146 127 103 123 42 53 28 34 33 68 58 82 92 102 99 94 104 128 112 114 113 110 71
121 129 141 161 193 196 212 225 226 217 236 240 202 172 169 120 137 138 125 115 116 60 50 34 49 50 44 41 40 56 55 51 58 78 86 76 53 40
126 142 146 157 167 194 216 199 192 191 240 227 208 178 157 158 145 118 110 116 171 121 103 74 56 32 25 20 27 29 40 42 48 53 50 44 45 61
129 141 138 158 177 177 162 177 191 195 201 226 211 199 206 151 127 130 123 153 179 93 69 63 57 27 2 -12 -18 -23 -1 22 41 39 45 43 42 34
135 137 154 156 137 126 142 170 202 202 182 190 225 195 186 179 142 136 100 146 167 145 129 156 49 30 16 -15 -27 -36 -35 -13 8 30 45 45 37 39
134 145 136 104 75 143 193 202 169 175 177 174 237 179 159 134 119 153 185 148 210 187 189 210 190 212 196 84 37 2 -23 -31 -35 15 48 56 49 32
142 132 137 99 139 130 118 90 88 113 163 155 161 168 160 160 160 126 144 167 220 188 223 294 244 238 235 215 110 44 29 12 -7 -21 -13 -18 -3 2
126 137 162 167 141 165 113 74 104 65 81 122 129 139 154 128 115 108 167 220 264 276 198 268 221 242 230 197 84 46 28 8 -2 -7 -8 -14 -15 -9
140 153 165 153 139 95 102 128 110 105 122 117 117 132 114 91 89 152 174 181 260 263 204 292 259 260 209 216 144 83 39 3 16 18 13 15 10 9
164 126 125 133 73 28 99 111 96 105 84 37 48 51 53 51 67 100 124 133 177 224 196 234 280 275 301 373 259 189 133 58 34 20 17 24 33 14
131 137 102 91 31 47 89 92 93 102 93 88 84 77 81 110 57 89 116 150 164 217 212 250 275 281 364 455 366 286 238 179 70 35 26 23 19 3
154 146 112 38 36 41 40 83 94 64 42 60 102 120 128 127 133 130 122 142 161 223 231 166 295 306 294 429 385 297 237 224 179 137 70 27 19 28
142 115 105 39 31 38 47 24 12 21 80 101 117 132 124 140 153 146 140 160 185 211 218 203 269 262 298 360 383 361 301 236 169 123 143 142 73 44
111 66 51 42 41 49 23 13 24 77 82 108 121 138 152 178 172 146 146 154 181 190 191 198 222 257 255 290 308 332 251 262 157 218 232 246 219 155
80 105 67 57 43 34 48 64 85 87 84 108 137 151 144 145 153 139 161 160 162 186 161 146 133 174 180 183 188 281 259 230 299 292 273 244 183 194
77 106 82 68 68 69 79 90 101 114 122 124 135 123 125 118 140 129 151 157 148 165 182 158 114 122 136 140 152 187 201 205 185 224 171 184 158 214
99 84 76 76 77 85 100 117 139 113 124 121 114 124 132 140 122 115 109 116 135 146 146 106 95 71 89 93 108 155 112 139 163 237 196 165 186 149
82 78 85 85 98 112 131 148 154 157 140 137 135 157 145 145 60 70 70 48 52 80 114 75 67 14 49 75 115 76 90 136 198 235 196 265 276 130
80 83 86 97 115 140 162 155 162 176 172 165 169 158 147 155 93 46 40 34 42 51 48 51 34 27 28 66 135 198 113 128 222 223 201 358 150 134
74 81 96 110 132 155 162 164 171 185 151 154 156 143 135 139 122 97 63 35 18 19 33 41 58 48 27 41 41 94 135 115 187 219 304 215 267 271
74 87 100 116 136 155 170 178 184 181 180 174 166 165 166 152 140 129 110 76 51 14 24 62 50 9 -26 -10 52 108 144 161 172 192 259 213 171 214
78 87 105 133 165 181 186 184 196 223 215 200 203 203 179 152 134 133 132 109 23 3 10 24 21 -10 12 11 26 81 124 138 184 240 268 312 353 254

GFSNE_con_3kmhel_021.txt.gz
Helicity
107 108 110 106 114 122 137 153 158 146 137 154 140 157 131 105 47 37 75 48 40 34 51 77 78 80 109 109 115 135 146 143 117 124 132 162 171 101
115 110 107 120 124 138 160 179 191 197 275 211 185 153 93 62 51 42 60 43 44 55 54 58 87 71 59 58 73 76 85 104 115 103 119 113 88 83
116 123 125 134 148 164 175 185 204 210 243 234 203 143 94 81 82 80 70 76 114 88 42 25 6 17 17 24 29 35 39 41 44 45 36 37 45 51
123 133 133 153 148 148 167 174 190 181 203 183 170 149 119 94 85 97 128 131 117 75 39 40 14 -11 -8 1 4 8 16 9 24 34 34 32 28 36
124 126 131 139 138 145 156 165 162 154 154 184 186 187 138 118 136 126 102 109 113 63 89 56 36 36 28 23 20 12 -3 -11 -2 -38 -14 14 34 48
125 132 129 124 127 139 144 117 120 154 145 166 203 196 158 121 118 117 106 115 115 111 170 99 86 67 55 45 31 25 10 -14 -23 -29 -38 -30 3 28
125 117 118 123 111 122 149 154 146 152 153 185 180 147 123 110 100 98 131 120 126 121 202 174 179 213 189 97 73 35 19 9 -21 -10 -15 -28 -29 34
114 109 128 129 123 76 94 86 108 121 131 140 135 129 114 104 101 125 144 100 135 110 153 247 195 220 203 182 78 26 14 -9 -22 -21 -20 -0 5 -9
113 123 137 134 92 126 95 64 74 71 82 106 112 107 112 113 100 117 113 132 174 217 134 238 222 234 224 225 128 82 50 27 -1 -1 6 60 61 39
121 119 111 104 107 95 103 123 98 79 89 91 84 107 111 103 55 105 87 111 188 209 131 268 258 262 276 353 201 121 137 87 62 79 109 98 76 62
116 85 99 105 81 45 113 103 86 72 61 28 42 49 44 31 56 111 125 118 108 161 150 182 208 219 291 383 269 232 191 124 105 97 82 66 53 48
81 96 89 98 52 59 87 88 86 59 45 61 71 66 55 66 59 86 113 122 111 130 144 177 180 118 180 249 311 316 284 213 142 92 66 48 33 31
123 114 112 51 46 43 38 75 71 44 36 67 67 66 76 84 86 80 84 121 136 182 208 122 177 163 163 261 309 277 235 260 262 182 90 39 18 21
121 106 85 40 37 30 47 31 10 26 67 61 68 95 92 109 114 113 110 130 146 166 180 140 162 146 176 226 240 234 227 235 199 169 214 167 70 38
103 56 44 42 34 48 29 12 22 58 55 66 84 100 108 118 119 103 101 101 129 159 134 120 134 149 176 199 228 225 102 199 146 250 296 259 205 139
70 94 67 51 44 38 39 48 61 65 69 82 88 111 99 96 105 83 73 71 83 116 107 80 108 117 125 141 141 168 181 229 310 369 325 260 195 223
74 98 76 58 47 46 60 75 82 83 89 92 109 103 99 82 94 70 74 41 55 56 81 81 77 69 79 101 129 157 193 259 321 317 278 229 243 203
88 83 60 51 53 60 77 107 107 98 106 125 132 142 143 115 65 40 18 15 19 37 37 62 35 42 38 62 47 153 219 265 299 256 230 79 188 143
83 67 58 56 73 94 111 121 135 136 137 151 153 158 149 139 37 48 11 7 27 19 34 26 9 -21 3 56 173 149 199 250 275 264 155 99 180 187
68 58 58 69 93 108 123 130 144 148 145 150 159 153 149 141 109 83 61 32 30 39 31 27 -0 -10 6 69 167 237 124 183 243 182 179 198 138 141
44 50 58 87 111 127 134 141 144 162 147 166 165 171 170 149 135 112 102 43 5 -4 30 44 44 27 31 43 68 104 130 93 178 161 178 172 182 187
33 51 77 101 119 134 138 138 153 164 167 165 162 173 182 169 152 130 109 80 35 14 39 53 49 3 -12 15 80 103 138 157 183 186 170 169 151 134
48 62 89 117 136 139 137 145 163 182 177 175 178 193 182 175 143 115 112 92 47 16 17 36 29 3 17 49 70 103 109 125 172 204 198 264 242 137

GFSNE_con_3kmhel_024.txt.gz
Helicity
117 114 111 121 118 113 117 121 114 101 112 122 110 168 188 175 142 127 119 66 54 43 55 70 66 63 56 59 71 96 102 129 133 120 149 60 46 108
137 129 121 126 119 119 124 135 143 146 210 192 187 201 187 176 141 96 77 71 46 37 34 21 21 37 39 38 36 41 47 61 71 89 93 100 115 125
134 124 121 121 119 128 142 154 168 182 211 215 207 187 172 136 112 111 115 113 112 38 39 33 29 25 25 9 13 6 23 25 33 46 58 63 56 43
127 126 122 132 121 134 160 170 188 191 214 177 183 169 142 121 104 92 101 97 89 55 18 21 16 14 15 25 28 23 27 22 21 28 30 42 62 46
121 123 122 126 134 161 167 177 188 201 194 216 198 158 146 130 104 108 69 79 72 40 25 30 19 24 24 28 26 27 25 29 38 41 28 23 36 48
113 109 121 132 143 151 158 166 182 207 176 172 172 167 161 125 110 97 87 65 77 70 81 54 39 40 44 51 37 29 29 48 63 56 47 39 21 17
104 113 130 145 122 135 186 183 191 191 157 159 171 182 123 102 91 78 78 82 80 67 111 113 117 135 167 103 79 54 65 72 61 59 66 46 28 16
112 129 131 129 143 146 159 151 120 131 131 143 160 136 87 92 71 74 93 87 38 75 101 180 131 149 188 172 107 74 46 17 14 20 24 40 45 10
121 126 143 170 167 181 149 70 76 52 79 102 113 91 88 56 72 63 94 96 128 159 110 136 134 171 176 192 148 83 41 95 118 125 118 95 75 68
121 129 157 174 165 127 96 119 114 90 78 97 82 73 77 94 88 63 86 56 146 163 100 122 145 138 170 227 144 63 109 106 100 97 81 85 90 80
132 129 149 115 87 52 106 113 95 73 66 48 31 28 38 22 38 98 107 89 100 122 123 87 98 130 125 218 144 86 112 108 78 91 110 92 62 51
134 113 94 95 68 57 95 95 90 63 57 52 59 53 45 46 31 75 114 103 102 97 108 82 102 80 29 134 131 157 160 115 72 64 47 28 20 55
127 107 98 79 44 50 50 70 71 52 36 56 65 59 57 60 64 71 77 105 105 158 181 61 121 124 117 112 141 187 185 150 151 142 88 38 6 11
109 93 88 40 40 34 51 45 23 27 72 75 69 69 75 75 74 78 69 83 117 149 141 113 174 136 122 103 122 175 170 160 178 199 223 217 207 139
93 67 29 38 40 48 40 21 35 72 79 87 98 105 99 92 90 87 73 68 70 100 135 124 133 84 121 132 173 172 105 192 185 230 272 273 276 265
83 76 53 48 43 42 43 59 75 85 88 99 104 117 120 112 113 101 78 50 54 97 83 103 -58 42 72 112 108 144 184 228 222 255 268 236 209 216
71 71 72 64 56 51 58 62 67 70 72 79 104 115 113 110 112 97 98 47 17 22 61 56 -19 9 75 39 95 119 154 193 209 257 219 194 180 157
75 73 70 57 52 54 52 58 68 65 76 94 106 119 123 122 122 116 107 114 -4 25 13 7 12 29 16 34 19 108 151 172 196 185 163 145 117 120
72 71 56 52 55 57 66 80 98 96 98 107 118 128 129 128 101 129 115 121 71 19 24 0 -15 2 26 103 144 103 107 167 175 186 117 135 135 109
64 53 50 52 56 61 76 97 105 110 118 116 130 129 137 130 142 138 126 99 88 74 49 10 -6 -3 15 92 159 208 146 135 119 147 141 111 137 96
39 45 51 55 62 76 96 108 103 130 117 127 138 140 147 142 159 146 134 73 50 47 44 42 55 48 30 62 110 124 136 75 90 143 179 92 100 98
-25 34 45 52 70 95 114 111 127 140 139 137 137 141 147 145 156 141 116 98 84 51 62 74 58 43 27 61 115 120 148 137 95 129 119 130 154 138
1 24 37 61 105 119 119 123 135 149 146 149 156 162 159 154 148 124 116 98 67 28 23 70 72 35 60 60 82 103 130 119 134 109 106 138 162 142

GFSNE_con_3kmhel_027.txt.gz
Helicity
108 110 110 123 144 153 159 157 155 152 139 136 125 221 228 244 202 209 195 109 63 60 59 65 60 60 66 61 54 57 48 43 53 59 49 52 80 72
123 123 134 150 162 162 148 150 163 174 212 204 192 210 209 231 209 174 144 67 91 50 41 28 40 53 51 44 34 22 17 20 17 22 31 33 36 28
125 133 139 151 155 148 151 161 177 194 214 224 215 214 219 209 189 159 146 131 121 50 28 22 33 31 26 29 22 2 -5 5 4 14 18 32 35 46
138 148 143 149 148 140 154 169 191 188 203 200 217 227 190 165 151 144 121 125 103 59 32 17 19 21 21 21 6 15 27 20 28 41 45 32 40 40
139 144 141 141 146 161 177 192 195 208 219 241 243 216 184 157 132 107 121 100 126 65 28 19 21 6 12 27 26 23 19 29 25 28 24 33 29 30
131 128 129 143 148 172 205 204 211 226 238 248 228 189 161 137 120 127 118 118 98 94 64 68 25 36 42 46 22 -2 15 15 11 6 -11 -5 14 13
120 125 134 157 162 147 178 184 203 233 222 195 179 163 147 121 112 117 114 97 91 97 118 127 109 157 135 89 64 35 36 13 5 4 12 20 -2 -8
127 141 153 158 163 173 161 169 175 176 152 153 157 148 111 118 118 109 94 93 99 99 90 99 130 169 163 160 66 35 9 -8 -5 27 51 66 81 90
133 148 160 163 181 205 195 152 145 68 48 103 109 119 115 112 97 123 115 112 125 117 104 139 158 160 140 135 82 108 17 -2 15 33 37 38 46 51
135 131 149 163 172 166 177 159 132 105 87 103 106 112 105 103 134 139 109 121 142 144 109 133 142 121 99 162 140 113 37 56 40 26 26 31 35 52
124 151 154 165 138 118 138 137 103 100 70 31 37 21 18 13 40 113 125 111 106 155 135 126 108 97 101 147 157 111 126 60 33 10 4 7 21 15
165 158 137 140 120 94 105 107 95 83 70 57 68 66 59 74 37 83 110 126 136 111 130 100 101 72 72 152 148 186 169 109 26 26 13 24 14 67
157 153 153 103 87 48 52 86 78 62 54 80 89 96 98 97 101 101 103 150 166 172 151 53 93 81 137 126 156 162 161 143 118 100 69 45 37 58
143 139 122 65 44 38 55 40 30 34 91 93 99 107 103 113 120 116 111 133 168 204 180 116 155 100 99 75 105 120 140 132 118 145 147 146 141 132
133 95 53 42 38 58 40 26 35 86 87 91 105 115 127 147 132 131 124 127 125 153 169 149 179 122 120 22 65 98 59 78 119 132 199 248 198 186
106 94 72 41 45 50 50 62 76 79 81 95 110 136 145 136 133 133 144 139 143 167 136 121 116 75 -11 24 45 90 62 129 206 226 176 189 193 200
80 99 87 75 74 62 63 68 76 88 94 111 129 140 139 133 140 137 146 148 145 131 119 134 114 104 103 78 93 131 121 160 179 128 126 113 214 193
92 89 77 70 59 56 62 74 99 87 113 121 135 138 141 138 147 147 140 141 144 147 123 111 31 44 59 89 52 62 141 139 136 131 122 112 143 151
90 82 73 60 57 65 76 96 115 124 108 136 139 142 149 155 112 152 155 148 139 121 139 96 16 21 70 126 199 116 72 115 137 155 106 116 142 135
79 68 57 55 61 73 95 118 134 128 128 136 146 144 149 158 159 159 166 133 116 127 125 61 26 44 44 95 170 229 127 92 102 129 125 128 108 82
57 41 43 59 73 95 124 140 138 145 123 136 151 157 164 159 169 170 157 88 46 70 88 106 79 46 58 109 135 161 142 104 58 82 123 76 59 61
2 -15 29 63 86 120 141 143 148 151 151 157 168 170 184 178 178 126 102 98 108 120 123 105 113 91 87 88 147 148 154 127 110 98 73 41 59 83
-2 10 43 72 107 139 146 150 159 179 179 185 191 189 194 174 161 129 95 105 143 93 60 126 114 68 67 78 91 129 118 92 95 98 54 53 72 96

GFSNE_con_3kmhel_030.txt.gz
Helicity
88 98 102 110 140 160 168 175 183 173 144 137 125 141 133 143 157 170 170 134 110 88 114 110 94 90 98 105 91 71 50 51 29 19 26 17 16 13
96 120 122 139 160 165 165 176 189 205 221 222 179 172 160 162 153 145 153 102 92 81 72 66 70 64 73 60 48 36 24 22 21 25 27 20 24 19
120 127 128 151 154 162 172 170 186 204 212 207 202 180 209 183 158 156 147 144 139 58 48 51 44 51 41 28 30 25 18 22 23 27 25 26 27 22
128 143 142 164 167 161 166 167 193 198 228 197 198 201 207 177 177 167 151 136 129 63 25 29 18 25 16 19 23 22 25 10 18 26 27 17 24 30
132 138 142 160 161 167 178 197 215 207 221 234 219 212 194 171 172 148 145 141 113 65 27 33 19 17 17 9 23 20 19 20 19 13 3 9 2 -3
138 139 145 148 157 172 188 189 190 204 204 214 220 206 178 159 143 155 136 123 119 107 76 44 36 45 19 39 43 38 41 34 18 2 13 12 -8 -18
140 139 148 159 145 142 173 192 192 195 214 215 195 184 172 160 126 125 144 140 124 119 110 119 132 147 126 75 69 67 61 36 21 9 22 0 -18 -14
136 137 147 136 134 155 166 154 160 176 194 186 186 156 123 119 140 148 146 145 140 106 151 122 134 163 133 139 63 59 80 54 28 18 8 -17 -18 -17
126 129 140 151 153 170 152 128 134 102 107 127 127 118 107 108 137 149 175 178 177 154 120 110 131 155 144 109 56 52 81 66 50 30 12 14 4 12
109 120 142 149 147 145 180 200 176 149 117 121 103 93 102 91 101 128 128 156 183 147 127 163 157 142 126 107 91 81 63 82 91 67 53 31 6 3
128 148 155 154 140 118 204 189 145 126 92 36 16 13 21 16 36 102 117 134 150 158 158 189 177 135 134 130 94 36 100 137 129 87 74 48 23 21
133 125 107 141 141 144 159 141 123 101 81 81 85 73 62 90 39 88 112 142 168 168 180 175 155 121 48 128 82 153 138 121 126 141 107 72 46 86
125 142 146 109 106 89 75 111 91 68 58 76 84 95 114 114 120 114 108 143 157 183 168 132 182 166 178 63 122 140 134 178 171 163 135 100 56 49
133 134 130 80 76 63 71 56 39 41 74 83 101 119 128 132 126 129 124 128 167 204 180 151 189 161 104 45 86 91 126 143 125 154 147 84 37 28
143 106 86 77 63 67 54 45 49 75 85 90 106 124 130 142 135 131 125 142 164 200 200 169 175 147 153 72 46 87 77 98 58 100 121 117 138 154
109 112 99 69 50 60 56 62 73 79 81 88 107 120 134 133 139 151 156 149 167 190 170 156 144 142 121 103 41 74 55 96 114 112 116 126 158 133
97 100 92 84 67 62 62 67 77 88 91 105 118 134 141 145 161 156 163 172 167 169 156 139 128 140 169 114 97 129 80 124 132 133 78 45 107 89
103 105 88 72 60 53 53 65 94 92 117 128 130 146 159 163 167 157 149 150 170 169 125 125 108 90 106 106 112 123 150 194 185 97 53 35 117 156
103 82 72 61 54 53 68 89 115 133 133 150 152 164 179 182 128 164 159 169 148 132 159 161 89 69 113 162 175 121 98 155 100 86 39 34 72 104
79 68 56 46 24 52 87 114 137 150 150 150 169 166 172 175 178 171 164 44 81 109 134 99 97 112 80 125 202 243 125 56 25 61 65 49 68 72
58 51 -1 -4 16 65 102 128 143 159 141 156 173 173 176 170 185 176 122 64 35 52 88 133 144 104 84 107 124 145 130 82 33 5 16 29 34 24
19 5 22 37 55 92 126 141 160 174 177 184 193 194 200 198 192 153 120 107 106 105 160 165 113 99 91 96 122 134 130 99 90 66 58 31 5 12
21 38 54 70 97 126 143 161 175 192 199 222 228 235 228 205 171 151 145 137 138 153 79 97 115 74 80 81 71 97 90 87 66 57 81 45 37 50

GFSNE_con_3kmhel_033.txt.gz
Helicity
100 99 109 119 152 171 180 178 176 164 127 130 112 113 86 95 95 108 136 122 114 115 112 118 130 131 110 129 102 118 89 86 72 44 32 31 26 29
99 103 112 125 141 164 169 179 192 197 223 204 156 130 105 104 99 127 135 121 106 93 107 110 106 103 105 103 103 89 82 52 36 35 32 28 28 27
105 94 101 126 147 178 179 180 187 211 210 202 189 150 153 135 140 163 156 147 147 83 81 87 85 96 95 83 71 60 41 38 39 36 40 42 43 40
84 96 88 124 157 158 165 163 185 181 197 165 164 167 162 163 187 192 179 163 155 103 69 61 63 59 60 39 37 41 53 41 60 56 49 41 36 33
79 98 102 135 144 152 164 169 174 179 191 205 177 180 191 177 192 190 176 170 153 59 42 34 29 37 35 35 45 56 58 54 47 45 43 37 27 26
130 131 131 130 130 135 141 143 162 177 175 181 190 197 183 159 165 178 167 130 126 111 85 54 35 29 49 59 64 68 59 40 39 36 43 35 29 28
156 153 150 133 117 121 160 170 176 185 186 207 216 196 165 176 176 148 131 124 124 116 121 106 124 161 156 89 69 51 46 48 39 41 35 27 23 27
150 148 136 116 123 129 145 135 159 186 218 225 211 196 181 159 141 129 132 136 99 77 128 140 133 146 152 136 37 28 51 62 44 41 38 28 28 41
133 127 133 138 156 161 137 129 143 116 117 164 192 163 155 131 131 139 146 130 127 132 117 145 131 139 140 126 49 49 57 55 67 61 49 48 48 59
128 147 163 160 151 151 168 195 184 165 144 160 149 141 138 115 100 101 82 99 122 131 130 163 134 152 133 158 76 37 18 44 57 55 63 62 45 41
138 151 145 146 155 154 199 207 187 149 114 64 49 42 36 33 47 99 101 107 116 124 129 156 148 158 136 149 97 18 48 73 83 77 50 56 56 49
115 134 140 158 134 131 170 181 163 125 112 102 98 75 68 85 44 98 124 137 142 128 130 171 141 114 38 163 103 175 150 112 72 60 62 63 66 82
124 130 139 121 113 117 121 149 127 101 93 81 55 68 81 94 101 107 116 131 142 161 163 119 164 148 155 150 151 175 186 169 159 110 79 67 74 87
136 138 134 94 120 110 113 90 83 92 62 61 65 76 88 97 101 112 115 128 161 171 157 146 198 172 166 171 62 138 151 164 126 94 82 70 60 66
145 108 109 126 112 111 88 79 78 79 78 66 70 88 101 119 122 122 126 132 138 146 166 154 169 154 172 129 52 78 50 113 44 12 2 25 43 80
137 126 123 121 106 82 78 80 88 85 71 71 89 104 106 116 123 128 132 123 117 143 145 162 143 146 147 161 86 125 87 101 103 96 51 61 58 116
139 105 102 97 85 78 76 80 84 85 88 102 118 118 112 116 124 125 138 143 151 153 54 127 137 164 183 109 92 148 132 135 145 140 98 79 91 105
142 115 92 71 62 57 58 59 86 80 109 115 122 130 133 131 129 127 134 143 137 72 72 93 68 58 86 115 142 178 196 196 178 127 74 66 100 56
112 88 61 50 49 5 7 77 100 119 119 135 137 153 156 160 105 150 147 104 94 91 131 101 66 89 136 184 189 161 78 144 104 82 68 51 63 97
82 47 39 13 9 28 46 73 99 116 122 138 152 149 159 174 165 143 120 104 106 123 134 111 99 114 130 183 233 219 106 84 62 58 38 12 36 49
35 24 15 36 44 58 80 105 126 133 118 140 164 177 192 185 182 167 160 118 89 124 158 164 152 105 95 96 131 154 137 63 13 -10 -17 -20 14 20
13 36 52 61 76 96 111 121 131 138 153 174 199 212 224 208 203 199 197 186 174 180 206 218 168 111 88 87 125 125 126 91 87 71 56 78 123 126
50 58 69 83 101 116 124 136 144 162 184 212 226 244 248 233 212 201 201 198 203 197 161 138 120 78 88 90 65 79 84 87 93 107 112 59 57 59

GFSNE_con_3kmhel_036.txt.gz
Helicity
270 224 154 124 122 125 130 136 150 141 140 158 149 129 115 84 61 89 109 109 105 110 131 154 167 177 177 177 132 132 166 121 104 108 88 70 63 40
256 195 155 126 113 113 121 154 188 164 212 185 180 147 108 100 88 109 120 104 104 114 118 142 155 143 141 115 138 128 100 102 90 66 50 52 50 46
234 162 118 100 88 96 126 177 171 211 219 216 193 159 156 136 133 148 143 159 161 111 118 138 128 112 109 112 81 83 83 65 73 61 61 54 49 53
147 156 130 106 87 99 150 147 183 182 209 180 175 166 148 136 152 166 180 169 164 119 110 99 88 82 85 73 68 69 63 86 76 60 71 68 72 64
195 159 124 94 97 133 163 179 176 180 197 199 169 170 153 152 161 170 179 180 188 123 98 74 65 65 62 62 67 71 82 90 90 75 66 55 58 57
185 156 81 99 128 152 163 155 169 179 170 181 185 195 173 171 175 177 199 177 187 156 112 68 50 54 57 67 66 70 78 78 74 70 64 45 46 41
77 107 133 143 135 122 156 152 161 182 190 199 214 234 203 165 177 192 197 175 153 129 130 101 112 126 155 113 86 57 53 57 63 75 67 39 42 24
133 154 163 156 156 139 137 142 156 202 216 227 244 208 183 189 190 181 180 167 107 58 127 107 110 125 140 136 56 25 33 38 53 68 57 25 36 34
162 160 166 174 189 177 160 153 171 181 176 199 199 190 190 161 169 160 150 118 124 129 108 102 102 128 126 120 44 37 35 36 52 68 67 48 43 35
139 140 148 141 148 156 176 206 214 203 171 175 187 160 162 137 123 118 102 109 117 111 100 114 106 132 121 146 73 25 2 20 52 68 72 69 54 43
127 131 143 147 142 169 196 199 203 173 144 97 68 63 55 50 60 117 122 115 106 103 99 106 108 120 127 139 93 16 19 53 57 68 64 62 45 30
131 137 159 181 163 153 196 206 197 152 139 115 114 85 71 86 56 117 137 142 136 97 108 121 108 98 45 146 106 182 163 79 54 36 35 42 29 38
135 144 149 142 149 171 178 174 136 106 124 92 64 74 81 85 98 120 126 144 139 167 163 101 160 150 180 191 160 148 172 157 163 137 55 -12 -4 12
142 155 158 132 184 163 139 98 77 94 78 70 68 69 76 92 101 103 105 124 155 169 145 136 200 184 190 166 110 134 159 192 183 156 117 27 -16 -19
172 150 173 177 141 122 79 73 81 80 69 65 62 81 99 116 107 108 110 118 135 143 153 152 179 116 160 154 82 64 67 165 160 75 41 25 29 22
175 169 152 136 102 80 73 73 78 74 67 72 86 97 100 107 118 122 117 113 106 128 131 136 93 124 137 157 94 162 155 98 114 96 97 72 35 0
176 113 98 93 85 71 70 68 71 72 78 91 94 98 110 117 127 124 136 140 138 100 81 83 97 127 155 110 107 160 151 149 190 190 116 108 77 68
137 101 75 58 49 43 45 27 58 61 84 85 99 126 144 149 150 142 130 112 99 102 99 97 73 54 79 96 164 205 242 232 221 176 136 86 87 109
76 57 46 37 42 25 40 45 64 80 88 101 125 152 169 178 127 155 148 134 142 142 164 162 139 123 136 193 168 151 99 148 122 111 82 71 61 71
55 37 40 31 44 50 55 69 79 87 93 120 153 160 169 183 177 170 166 169 173 186 196 160 134 131 132 179 201 209 120 104 122 95 120 182 184 99
34 37 46 58 67 71 81 88 96 106 99 129 161 176 189 202 212 207 196 130 105 149 159 144 148 85 85 107 119 167 170 116 105 80 74 75 91 91
42 50 64 79 85 85 87 92 101 109 124 148 177 201 217 223 217 212 211 190 182 184 195 190 138 84 100 83 118 128 172 170 137 95 101 100 126 141
56 60 77 87 90 94 92 99 101 117 138 162 186 210 216 224 208 198 207 208 187 139 111 114 95 83 107 111 104 166 177 176 171 137 130 94 94 88

GFSNE_con_3kmhel_039.txt.gz
Helicity
485 344 375 241 163 230 185 158 175 183 167 137 126 160 170 151 109 107 92 78 81 88 94 104 123 135 147 160 152 168 169 161 146 132 93 80 103 65
412 474 248 369 203 182 155 153 147 147 170 111 137 156 165 142 106 105 105 84 82 93 94 108 123 134 154 166 168 156 170 142 91 101 86 65 46 52
505 356 198 281 243 203 133 147 143 159 193 183 167 170 170 144 132 139 125 139 140 99 108 117 131 146 152 162 148 139 103 81 74 59 65 52 74 52
352 207 198 278 246 142 151 138 137 160 180 178 173 168 145 135 124 130 129 136 152 110 114 122 149 164 154 116 100 91 73 63 63 75 89 87 85 63
317 306 267 222 198 149 145 143 154 163 188 197 164 137 123 126 128 124 135 135 152 117 107 115 152 139 113 94 95 83 88 76 63 66 64 63 53 46
349 245 186 151 113 88 126 131 160 185 171 167 169 171 151 115 134 121 124 158 181 175 126 120 109 84 80 88 80 69 55 44 43 49 53 52 48 50
180 123 61 61 74 82 130 148 162 169 167 175 177 181 173 149 134 152 191 182 183 156 151 150 117 160 187 134 101 62 49 48 53 61 60 68 71 53
61 77 105 119 154 175 172 163 161 183 193 199 187 182 180 178 197 192 193 203 175 101 150 142 115 138 171 149 64 28 35 44 46 47 56 58 56 57
99 107 137 146 165 156 149 159 180 165 140 163 186 197 188 177 183 180 174 165 151 151 126 136 104 136 135 109 38 29 33 31 34 51 63 71 66 63
105 100 110 124 136 143 142 148 165 163 141 184 189 163 171 152 144 131 118 124 146 130 114 133 102 130 90 132 64 25 8 17 38 54 59 61 62 62
88 115 114 131 117 125 144 165 169 161 151 108 93 98 82 65 65 109 126 123 109 110 117 117 106 93 99 117 78 3 9 38 47 49 49 51 55 49
129 132 120 120 110 113 159 184 170 139 150 129 125 91 71 76 54 109 132 146 142 113 133 157 134 90 32 139 110 162 158 66 34 25 32 41 45 108
109 120 134 127 134 150 165 174 146 113 122 84 64 70 77 82 90 108 124 164 165 206 176 120 186 173 209 195 176 174 175 141 159 145 73 35 17 30
127 140 134 105 157 153 150 108 89 102 76 66 65 72 82 93 100 111 117 135 173 184 151 140 217 201 185 130 64 90 171 202 199 179 146 91 10 -20
150 118 146 158 145 145 105 87 73 64 51 52 64 85 103 121 114 116 125 135 151 153 146 109 114 95 133 131 113 139 101 195 175 84 64 77 100 88
157 159 149 135 113 71 52 46 50 52 56 68 83 99 110 119 132 143 153 118 102 113 129 117 100 101 118 168 152 194 181 152 141 128 135 129 121 111
160 113 85 56 38 34 42 53 59 65 72 81 91 96 121 130 146 131 139 129 144 139 139 121 115 150 191 163 144 200 178 162 198 207 153 133 135 141
114 66 39 25 24 30 40 50 63 55 79 87 103 128 144 144 142 148 157 157 161 163 165 159 132 102 115 149 188 202 238 240 243 217 196 151 145 149
48 29 24 27 37 42 55 59 68 78 85 103 123 149 160 166 128 165 161 187 201 196 215 193 173 171 154 192 214 163 111 141 166 159 175 154 127 140
26 25 31 40 45 52 57 64 74 83 89 97 127 140 156 171 168 169 169 169 181 190 204 177 178 170 142 135 160 227 149 189 206 170 177 175 201 165
14 29 48 53 55 58 67 78 89 91 77 88 112 145 160 165 181 183 190 118 98 173 202 191 178 99 122 148 174 216 219 130 146 181 159 125 109 64
20 44 53 55 58 64 73 84 94 93 96 106 128 146 165 172 185 173 170 175 182 199 230 251 212 157 158 167 176 191 234 202 176 140 124 97 101 180
29 41 49 57 65 75 86 95 101 105 108 123 137 155 168 177 185 189 209 217 210 198 177 176 177 172 159 163 165 205 214 220 213 214 174 115 95 92

GFSNE_con_3kmhel_042.txt.gz
Helicity
428 440 515 361 336 380 450 333 296 251 207 238 166 105 87 109 102 129 116 86 82 82 72 69 74 81 96 107 102 107 120 124 112 120 137 124 101 111
518 532 393 513 478 460 410 266 286 225 279 188 132 118 119 137 145 134 107 75 77 79 75 65 65 78 88 97 106 109 124 124 127 126 122 122 103 89
588 593 465 513 529 512 340 411 267 189 228 206 144 151 152 144 136 131 114 123 128 85 93 86 107 111 108 118 119 120 117 113 110 99 69 86 71 90
530 504 494 486 462 474 406 290 240 168 151 131 134 151 143 129 118 121 116 118 128 87 88 83 113 137 139 119 111 107 97 92 71 59 80 80 78 78
434 475 463 392 437 326 169 158 111 111 128 153 146 131 116 113 124 108 117 120 118 72 63 79 122 135 115 110 108 111 89 72 68 65 64 65 59 39
377 275 356 304 230 185 138 72 68 122 144 175 170 156 141 111 117 120 97 109 130 128 89 94 117 101 98 100 96 76 61 58 54 51 44 35 28 22
298 283 264 177 107 47 63 94 125 156 156 153 164 154 140 127 116 120 149 127 146 126 138 178 141 145 181 138 115 73 61 57 49 42 36 35 33 35
255 191 114 49 86 93 116 133 129 157 148 147 151 147 146 135 163 159 145 152 137 96 149 162 116 135 181 166 75 36 38 40 39 40 42 49 61 61
75 77 81 100 132 132 119 133 152 146 142 172 180 157 148 140 148 161 157 146 147 129 131 156 117 150 152 134 36 31 31 23 27 40 47 51 51 57
63 98 128 122 117 115 116 130 145 151 157 155 138 135 155 138 135 135 102 114 132 129 117 155 124 158 113 138 60 6 2 21 34 42 48 51 50 53
95 97 108 105 78 95 143 159 135 113 120 90 101 101 83 49 50 98 109 110 107 116 142 145 150 141 119 127 58 -7 22 38 56 54 53 59 59 55
90 87 83 99 106 77 108 137 143 127 114 105 101 69 59 66 50 103 134 144 140 109 122 164 175 128 89 171 171 172 136 66 30 25 24 8 -38 98
98 117 116 104 116 151 150 133 102 85 91 54 43 60 65 77 88 102 120 165 151 204 215 133 243 211 247 254 256 241 219 160 139 101 44 5 -23 -48
112 118 116 99 136 121 117 73 46 54 33 36 43 62 76 87 102 113 114 133 174 189 151 125 235 224 229 232 259 237 205 192 169 126 64 43 9 6
123 115 146 143 118 97 53 33 28 26 28 34 50 83 110 116 114 119 128 145 175 196 175 153 194 182 221 262 289 264 138 188 140 70 69 94 108 74
154 148 128 108 68 31 23 14 15 15 19 39 73 87 89 124 126 136 145 135 143 168 174 171 170 197 220 232 241 246 221 240 181 157 131 134 127 115
135 97 60 27 17 14 13 12 17 20 31 51 66 76 96 105 130 138 166 162 185 175 165 150 150 183 224 207 149 184 180 216 239 205 145 144 150 160
66 16 -3 2 12 16 19 28 31 23 41 54 68 84 102 117 131 146 165 177 176 179 177 180 162 136 140 179 182 218 251 258 264 224 185 172 188 193
-7 -9 9 16 21 30 40 49 60 58 70 82 88 102 112 137 106 161 180 174 181 188 203 195 174 149 109 176 209 148 197 239 198 178 187 198 208 198
4 11 18 22 30 40 48 55 65 71 82 87 108 118 125 133 146 169 187 189 193 202 205 172 173 170 151 167 150 208 139 203 212 216 196 199 214 175
8 16 27 34 42 52 59 72 84 86 77 90 98 118 129 136 160 180 185 127 91 170 183 184 196 109 157 192 202 207 181 134 162 184 189 199 171 60
14 27 37 45 53 64 74 82 95 102 103 110 117 132 147 154 161 173 188 166 151 185 221 244 208 166 176 195 203 178 197 161 142 107 136 103 99 257
24 37 49 63 71 76 84 94 105 117 119 113 129 142 160 173 170 200 226 207 187 214 204 183 183 172 169 168 159 177 159 161 121 67 120 54 26 100

GFSNE_con_3kmhel_045.txt.gz
Helicity
408 404 420 427 456 462 458 433 360 373 427 393 398 235 221 193 162 161 115 72 90 100 101 98 92 91 93 92 92 99 99 101 101 96 80 79 109 96
443 468 500 515 547 538 544 554 469 432 503 666 555 406 255 176 122 94 66 72 63 81 91 83 75 74 74 75 77 68 63 82 117 108 101 106 81 102
512 538 580 575 628 556 582 553 491 468 354 405 326 286 216 94 96 92 88 91 95 75 84 75 95 102 93 85 80 87 102 113 94 88 104 106 109 125
581 600 618 580 504 503 308 362 318 316 324 319 241 169 106 95 91 94 110 100 89 77 73 80 103 122 118 108 113 115 112 103 80 80 77 98 102 91
528 499 403 365 376 336 303 257 251 230 212 187 170 113 112 110 115 96 83 86 84 54 61 84 110 117 110 108 116 115 89 79 83 77 68 61 55 57
435 389 281 262 260 249 249 217 232 215 135 89 105 112 130 95 90 87 105 96 91 81 74 69 75 75 75 83 96 82 75 69 65 57 51 46 39 33
324 291 277 230 219 178 169 126 102 98 98 112 135 130 124 122 119 121 97 76 92 92 100 110 111 97 98 93 91 68 72 70 59 54 56 51 40 42
249 206 190 152 115 115 131 86 61 111 119 156 141 138 133 108 92 97 120 131 153 78 100 79 68 85 107 101 60 50 47 46 53 56 53 51 57 52
160 124 101 104 118 92 94 116 121 129 148 152 132 110 118 121 145 146 119 103 85 66 71 84 84 93 81 84 42 36 28 31 37 45 50 50 50 44
68 74 98 101 97 120 135 144 137 143 148 145 132 135 140 128 103 76 52 50 67 71 67 115 81 86 81 91 54 11 -2 21 32 39 47 50 52 55
109 107 102 116 137 132 144 137 119 120 129 124 135 116 84 32 29 58 59 72 81 79 79 90 106 97 112 140 60 36 50 46 30 10 -6 -17 -13 49
107 114 119 121 124 123 162 135 123 120 119 121 96 49 34 32 32 67 87 91 89 95 131 133 123 84 70 145 140 151 99 66 40 14 -5 -19 -30 -87
120 132 128 108 86 119 137 126 105 78 92 48 34 29 28 37 51 70 81 99 105 153 140 126 176 139 192 207 178 166 144 137 91 53 23 -7 -21 -30
123 127 116 117 142 124 105 65 36 31 18 12 15 18 24 37 50 61 62 78 115 161 141 143 230 189 201 211 232 176 170 172 127 94 54 13 2 7
119 130 146 127 93 62 22 11 15 14 13 19 26 31 40 46 47 50 67 76 110 142 151 123 156 165 196 238 237 207 142 129 102 55 35 36 40 10
167 142 92 58 28 17 15 16 16 17 21 28 40 39 37 45 52 63 76 73 78 99 93 127 130 146 193 219 206 186 124 170 158 154 98 107 104 106
101 60 29 12 10 14 16 15 18 19 23 28 33 37 42 44 58 70 90 97 108 135 129 129 122 149 186 174 159 128 67 153 192 189 149 155 141 129
49 16 10 13 11 12 20 22 23 22 28 35 41 47 48 53 57 73 95 111 139 151 158 163 150 130 115 138 177 196 187 195 211 169 147 171 208 175
11 17 15 14 14 19 26 31 39 38 41 44 49 56 56 60 60 84 97 106 139 153 157 165 155 120 67 111 155 102 149 177 143 143 135 135 161 180
8 9 13 17 22 27 31 36 39 42 48 51 59 63 66 67 74 94 112 134 142 150 152 142 149 142 115 82 97 187 128 174 190 154 130 103 157 161
7 9 14 19 26 34 38 45 50 51 48 62 64 64 71 80 99 127 144 100 84 153 140 184 174 81 119 125 150 176 147 153 148 164 138 66 65 65
11 13 17 25 32 39 44 50 56 57 60 65 77 86 86 91 131 141 156 170 176 156 142 197 174 137 128 131 142 142 136 121 119 99 116 119 48 122
19 22 26 32 40 46 49 53 64 78 96 106 107 101 98 110 135 156 180 198 193 173 187 200 168 134 142 132 102 141 120 96 86 61 104 87 100 83

GFSNE_con_3kmhel_048.txt.gz
Helicity
268 285 342 390 445 428 399 415 412 427 466 425 459 382 412 405 462 482 442 276 163 134 103 90 89 96 97 107 109 117 121 120 120 117 114 101 95 85
270 290 360 430 518 478 435 470 503 466 527 497 548 538 461 483 362 310 245 181 121 114 105 72 58 68 75 87 83 78 93 104 105 102 104 107 120 121
294 333 397 456 510 556 540 495 483 474 458 396 514 392 318 269 234 230 174 144 130 76 48 46 59 68 76 77 67 79 93 91 87 94 104 118 139 152
333 397 461 488 541 545 336 326 418 261 335 324 381 302 253 220 154 151 135 126 105 94 75 64 65 74 71 61 69 94 88 88 99 117 107 118 126 126
334 385 414 415 353 338 297 270 317 257 254 249 265 199 167 159 136 102 105 109 110 63 48 55 75 93 96 94 108 93 92 97 85 64 53 50 51 55
373 351 325 288 236 214 199 246 244 239 222 171 171 176 167 136 134 134 132 116 114 100 77 80 107 97 79 82 74 58 50 46 47 50 53 56 55 47
296 271 273 250 182 169 186 183 180 180 153 156 145 142 145 136 120 138 122 116 126 106 123 130 106 88 68 54 42 36 43 59 75 80 79 73 65 57
256 236 245 218 171 177 164 145 133 148 156 155 157 140 123 121 135 145 158 143 144 81 116 77 58 64 71 65 36 37 51 61 67 73 72 71 66 64
196 193 167 157 153 127 128 125 120 121 130 124 115 125 155 158 194 157 129 121 82 45 45 60 63 62 58 57 25 37 46 43 48 48 57 70 65 61
152 110 98 98 112 122 140 135 107 108 116 142 152 164 164 144 120 99 51 25 34 47 55 82 56 63 60 58 39 27 17 33 48 49 60 66 71 57
80 96 92 101 104 102 105 127 125 140 154 155 157 138 101 59 29 34 37 49 59 60 71 65 66 66 79 110 53 28 59 59 62 63 57 42 34 25
62 80 97 113 132 137 153 156 160 170 171 149 116 61 23 20 27 45 57 70 67 74 106 102 80 67 70 101 107 104 79 62 50 58 44 29 17 78
106 135 151 167 173 187 189 150 144 106 74 47 26 21 23 29 42 56 64 79 81 122 119 117 145 108 163 189 148 138 122 120 91 100 28 -1 42 90
129 134 140 153 155 142 115 82 40 21 22 18 19 20 31 37 45 50 47 56 97 135 113 127 209 160 173 187 191 127 133 141 106 81 59 37 3 -25
144 153 130 107 81 51 36 19 14 26 27 25 27 30 34 40 36 38 51 63 83 123 140 135 187 186 200 238 236 176 117 123 88 47 62 89 75 69
118 107 90 54 27 15 16 22 23 24 32 35 36 38 38 46 54 56 58 61 67 75 96 135 156 157 193 204 183 155 152 141 120 138 124 111 101 98
120 92 64 36 39 43 35 28 31 35 40 43 45 48 50 54 58 65 70 71 90 92 88 107 118 140 191 190 189 187 122 136 140 134 105 118 133 129
93 79 51 49 46 37 31 36 37 37 42 45 46 49 54 60 62 65 74 85 92 96 107 104 105 123 146 160 135 174 150 146 149 121 109 91 91 94
82 54 48 45 38 34 37 42 44 45 50 48 51 56 61 65 59 66 71 79 86 95 107 119 131 134 70 122 135 99 121 138 115 113 124 119 113 82
53 44 40 34 33 38 43 48 51 50 50 53 59 62 74 72 70 75 76 97 111 114 135 131 134 149 160 23 35 150 122 117 158 152 123 100 100 67
41 34 30 31 39 44 46 49 49 53 54 60 64 68 68 73 80 81 87 67 84 136 147 150 161 78 148 89 151 175 146 151 167 159 135 96 59 42
29 24 23 31 44 48 49 51 52 52 56 61 65 74 78 86 98 92 103 114 126 149 154 180 149 139 178 162 124 140 136 138 147 120 99 104 102 116
21 20 26 33 41 45 51 54 56 62 65 72 84 87 88 95 103 117 117 128 149 154 151 149 140 170 193 191 148 156 140 121 122 104 110 82 99 140

GFSNE_con_3kmhel_054.txt.gz
Helicity
244 286 296 328 360 391 405 418 367 344 417 426 392 534 598 633 598 413 327 281 301 268 210 167 155 125 91 110 100 89 109 98 75 77 87 79 79 83
245 264 320 342 368 372 357 364 377 375 361 399 361 323 322 317 267 317 304 322 302 230 152 130 83 80 105 88 89 96 96 79 85 91 91 87 93 97
248 276 317 327 322 316 294 298 301 327 334 285 244 284 324 359 295 300 270 235 205 124 124 83 90 101 104 89 93 95 96 103 104 101 100 101 109 110
236 265 278 255 249 199 195 188 194 191 217 232 241 242 230 218 246 232 180 158 145 87 70 72 99 91 79 91 97 94 90 92 95 98 110 108 113 115
161 160 155 162 175 162 171 186 187 176 170 146 162 191 217 232 213 169 166 134 129 82 96 122 110 120 112 100 97 100 101 94 90 95 86 81 68 54
131 142 156 166 157 161 164 169 174 169 177 194 196 211 237 187 171 177 152 140 146 142 157 124 106 110 111 122 115 108 90 73 61 50 43 43 41 37
259 165 134 182 165 141 134 120 132 157 154 124 211 193 149 143 145 143 136 165 165 143 163 141 161 154 126 101 70 42 39 49 55 54 49 40 38 32
232 272 319 227 172 145 124 125 135 159 177 135 127 127 134 151 172 192 200 207 193 148 201 130 174 128 94 92 42 38 46 52 52 49 45 36 30 28
126 148 161 113 121 120 134 120 120 104 109 125 116 150 204 215 206 212 201 181 175 163 141 97 72 77 104 79 49 36 35 41 40 45 43 39 35 24
57 53 63 75 77 76 86 90 89 116 133 160 191 212 214 221 218 184 153 116 93 71 49 58 82 75 71 72 58 14 23 41 60 67 64 52 36 29
62 91 63 64 90 109 123 123 150 165 144 150 143 130 125 107 87 103 67 51 57 61 72 62 57 42 56 67 39 7 53 73 63 57 65 58 41 39
63 78 101 99 109 137 159 168 159 157 173 149 121 95 70 41 12 45 71 73 62 59 88 75 93 50 8 42 66 98 87 72 42 48 43 47 51 92
108 107 115 132 145 144 146 152 138 129 104 84 65 49 44 43 42 46 57 93 92 80 92 78 93 77 63 68 76 114 79 92 98 81 42 50 54 71
112 123 130 119 109 102 108 97 86 68 57 53 61 58 57 57 52 56 57 64 69 73 93 114 117 99 91 90 103 106 95 97 108 107 96 55 40 38
100 93 96 93 89 99 96 75 53 63 68 68 55 58 54 55 54 54 51 62 69 77 80 98 120 106 133 141 129 104 76 134 100 81 111 117 102 89
99 85 77 86 95 97 93 67 69 63 62 60 58 53 45 53 63 71 75 86 82 80 90 90 109 128 127 149 164 149 154 157 137 123 148 146 143 171
77 92 106 119 124 112 90 70 63 55 58 55 60 55 58 59 67 75 81 87 98 77 69 93 101 105 124 128 136 158 148 166 163 85 89 109 163 179
106 102 115 113 109 98 82 74 66 55 52 51 59 56 58 64 66 80 87 93 93 84 71 84 90 95 113 143 130 169 170 183 196 174 193 123 144 121
112 110 106 100 96 84 73 67 61 46 42 49 57 71 71 75 59 90 98 100 99 93 94 93 100 108 98 68 99 77 137 160 141 78 156 202 195 160
126 122 112 103 94 87 77 66 59 57 63 66 68 72 74 76 83 91 95 98 104 103 105 113 120 116 128 108 -18 91 101 157 182 132 135 178 212 120
106 101 103 102 95 88 81 70 71 75 77 84 87 79 84 89 99 120 121 58 57 105 119 123 115 60 111 120 96 92 144 149 181 226 149 102 45 121
109 96 90 90 95 92 87 84 74 70 80 83 83 86 92 104 111 114 123 119 126 143 155 158 120 119 139 140 -21 -10 39 157 185 194 169 152 98 65
100 94 93 98 106 103 98 96 102 105 118 117 114 108 97 119 120 132 132 133 143 143 147 157 136 137 164 160 93 -37 -21 137 168 132 194 177 157 131

GFSNE_con_3kmhel_057.txt.gz
Helicity
134 135 172 246 302 289 330 374 245 229 259 338 406 483 577 585 521 483 351 266 245 192 157 193 188 124 149 131 114 122 130 109 101 109 100 95 90 90
123 135 206 265 301 310 273 318 321 251 272 324 342 365 394 426 363 404 368 296 217 175 168 137 109 86 98 103 98 111 98 104 106 94 94 94 88 91
185 205 206 197 222 221 218 185 96 166 122 165 202 209 248 279 240 267 280 239 207 126 103 71 71 84 96 101 108 98 85 96 89 87 98 102 104 109
216 190 178 166 163 133 123 119 93 136 157 194 202 193 138 208 220 224 189 198 168 120 85 97 79 92 77 68 83 101 104 102 106 107 113 113 113 121
209 181 146 164 181 164 168 165 138 159 159 101 134 168 162 175 193 180 173 130 110 80 82 75 96 120 104 89 94 109 111 109 106 104 105 100 91 87
225 180 144 169 168 135 131 147 139 134 148 140 118 148 172 176 172 148 158 143 134 136 135 125 132 112 110 128 148 151 132 121 112 96 72 52 43 36
150 164 160 166 174 167 123 141 133 97 97 99 115 145 182 168 148 168 169 179 183 181 170 173 169 153 145 137 129 114 91 61 44 39 36 32 25 26
101 150 180 209 167 113 125 121 134 99 87 90 122 122 128 139 163 186 204 215 217 191 229 175 178 178 162 99 47 39 43 47 44 39 35 25 21 20
79 92 108 114 129 104 98 129 117 122 108 111 124 143 166 179 203 205 189 192 192 171 142 126 140 98 64 60 32 27 28 34 41 44 38 36 39 37
46 54 69 67 66 88 95 107 123 122 118 141 162 163 169 171 168 154 136 120 97 73 35 61 65 73 62 69 20 24 36 41 55 62 52 47 47 42
77 86 96 87 95 120 129 126 122 138 145 146 136 129 122 108 95 113 92 91 67 63 43 63 64 49 70 61 69 71 73 75 68 66 55 54 50 48
85 99 111 112 112 115 117 117 123 124 130 121 115 100 81 59 36 60 78 94 81 74 77 77 73 50 55 53 72 94 102 72 64 60 50 51 60 104
63 69 75 91 99 105 113 128 113 108 108 97 81 71 70 70 66 64 61 91 101 89 87 83 85 75 68 62 54 109 115 113 130 105 60 55 63 91
63 66 70 69 84 87 99 95 98 100 89 86 96 92 79 65 60 58 60 66 74 80 89 108 100 100 95 85 93 107 111 126 109 140 129 66 64 60
64 62 65 66 68 87 88 83 88 95 97 112 102 76 62 49 49 52 50 51 58 69 73 103 110 101 114 105 104 110 71 96 92 63 120 130 150 158
67 70 72 80 87 92 99 97 89 86 94 97 82 65 49 51 62 59 58 60 53 67 74 91 109 115 105 116 109 89 108 98 91 89 106 129 168 176
77 86 96 104 112 114 112 102 96 91 95 85 81 72 62 60 65 67 63 61 59 64 73 89 96 95 115 111 109 140 126 110 116 112 107 129 126 122
98 92 99 105 111 115 113 107 97 91 92 85 80 73 68 71 71 70 73 74 71 76 80 91 93 100 102 110 129 120 114 124 134 125 137 148 103 96
104 102 100 102 110 110 104 105 102 89 82 83 72 78 76 75 63 74 79 81 83 93 109 116 116 109 107 107 118 95 132 127 104 90 89 141 145 116
101 96 99 100 108 109 109 111 109 103 97 86 88 82 85 82 76 80 92 85 84 89 112 137 152 140 139 130 109 103 102 155 128 99 90 132 170 77
106 105 101 101 105 107 110 113 113 120 99 101 101 96 87 88 85 94 96 40 38 79 95 117 144 62 106 123 143 144 128 84 106 134 103 76 29 40
92 95 102 104 108 113 117 121 115 117 118 112 122 123 114 96 92 92 98 96 102 111 119 128 126 142 143 148 157 138 123 123 113 84 102 108 -25 7
83 87 93 96 105 109 115 117 120 116 121 126 129 121 121 114 114 111 113 112 116 116 118 125 131 122 141 146 111 138 134 122 101 85 139 136 131 85

GFSNE_con_3kmhel_060.txt.gz
Helicity
116 95 115 126 180 196 197 265 288 265 131 133 110 226 287 382 270 417 475 356 263 207 161 179 178 146 135 121 71 50 65 105 103 104 120 111 102 92
122 135 137 154 200 217 228 228 223 195 146 99 123 178 160 166 232 296 329 258 135 149 140 144 106 83 77 71 79 105 100 101 106 106 101 100 99 94
167 157 160 163 163 162 141 157 171 160 151 196 164 215 242 218 275 242 253 251 244 165 122 96 89 76 85 116 132 135 115 100 91 89 84 80 82 87
164 155 183 171 164 155 130 138 140 164 166 145 181 169 201 187 200 171 172 128 104 113 105 111 99 106 119 124 103 77 97 97 83 80 81 84 79 90
166 144 170 143 115 99 104 123 117 107 132 138 124 129 124 108 125 160 141 148 134 130 101 94 95 89 98 111 110 88 82 87 85 90 93 83 76 81
189 134 156 104 72 47 77 83 82 120 114 126 136 108 108 150 173 172 176 128 128 106 100 135 136 137 123 127 118 124 130 104 88 85 77 71 67 68
135 96 88 76 95 86 70 101 118 122 126 144 124 137 134 151 153 141 141 165 164 157 175 160 161 155 142 127 120 100 101 101 94 80 66 49 36 32
70 82 101 131 157 147 142 121 92 67 128 144 141 131 134 158 177 191 194 221 217 181 224 184 171 172 161 145 104 86 55 33 32 38 38 37 30 26
34 46 65 80 89 85 110 131 118 122 126 124 147 168 182 195 219 221 218 209 187 179 157 123 158 123 94 55 17 15 23 32 38 44 46 48 46 33
48 64 77 82 78 105 115 125 147 150 147 154 164 154 159 150 156 153 148 136 105 86 77 103 56 50 49 42 7 23 52 70 70 83 70 53 41 34
52 58 75 83 91 118 118 132 144 161 190 199 181 158 138 129 104 144 125 137 111 91 56 75 72 63 56 70 91 135 142 106 85 75 74 62 49 38
44 61 77 87 101 98 103 114 124 130 148 147 145 147 137 110 95 92 103 128 109 119 88 93 80 68 103 102 109 123 98 89 77 76 72 64 58 83
55 63 68 70 81 90 93 99 89 99 124 128 125 113 110 113 121 111 90 105 119 102 80 90 85 94 87 74 61 89 143 130 162 144 72 68 54 57
52 59 57 47 67 76 91 81 99 131 126 131 135 138 147 152 120 86 80 75 75 80 69 87 99 119 109 76 47 81 110 147 163 134 147 80 46 32
59 55 47 51 69 95 92 106 137 136 140 152 145 130 119 100 85 89 81 70 62 67 69 92 105 104 125 116 96 60 57 81 120 87 94 132 130 117
59 66 65 80 101 111 122 123 123 124 127 130 122 111 102 100 103 93 88 86 76 88 66 62 77 92 98 118 109 76 92 90 84 118 121 112 122 131
70 81 85 101 114 121 127 128 127 122 128 128 130 126 114 100 96 90 89 86 85 106 113 108 78 75 89 87 90 120 102 100 108 92 105 92 92 100
80 92 94 102 106 116 122 124 122 117 124 130 125 124 117 109 103 99 97 103 89 95 100 111 115 99 91 92 83 110 106 98 91 110 140 116 66 81
84 87 93 94 99 106 111 118 126 121 130 134 133 128 118 106 92 101 108 119 101 98 101 108 125 102 71 79 99 54 120 122 130 141 156 128 126 88
99 93 89 94 100 101 105 115 116 120 144 143 135 134 128 116 103 98 111 115 97 93 99 107 133 133 113 107 87 87 67 130 135 136 130 126 138 24
86 91 100 98 96 94 95 102 116 124 133 144 157 142 124 127 116 107 90 61 56 86 94 102 116 43 90 95 110 126 136 77 88 130 129 121 103 62
91 95 95 91 88 87 86 98 107 115 121 131 132 143 145 146 123 116 114 109 105 111 115 116 108 108 129 115 118 113 109 106 92 71 67 79 138 80
95 98 97 93 92 91 100 109 116 121 136 138 139 136 143 137 135 134 122 110 103 105 111 113 108 103 123 134 96 115 98 107 112 103 125 91 95 -5

GFSNE_con_3kmhel_066.txt.gz
Helicity
230 215 207 201 191 176 173 185 202 195 150 171 148 110 86 82 70 47 43 50 28 27 62 144 81 52 96 117 68 108 144 165 117 63 42 48 59 60
192 188 189 170 162 161 173 185 199 208 197 173 127 89 84 77 104 94 90 85 101 12 25 30 130 160 171 149 110 99 79 46 40 27 104 82 72 67
161 158 167 150 133 156 163 153 163 166 139 113 102 79 75 92 109 102 100 135 155 132 216 176 56 51 51 53 87 101 94 118 155 166 128 102 87 81
159 177 189 158 181 173 153 162 146 129 105 91 106 116 124 103 65 100 95 115 85 132 156 170 163 142 128 114 96 108 105 106 97 100 101 102 84 77
192 190 180 175 155 132 135 123 96 94 93 76 88 88 81 67 66 74 81 118 97 108 135 140 134 106 93 94 85 79 110 135 129 100 85 82 87 92
193 176 149 118 103 102 89 78 72 81 68 59 64 73 78 67 71 76 85 100 116 108 108 113 139 152 159 168 159 147 137 121 110 116 107 95 90 87
109 106 111 113 91 74 49 57 64 77 73 63 78 84 92 104 103 105 114 117 131 139 135 137 138 134 131 128 126 114 100 93 97 97 104 99 92 84
67 75 73 90 92 93 99 118 107 87 102 96 95 113 118 125 134 144 143 147 141 156 162 148 132 120 118 117 96 92 85 90 89 83 72 58 48 36
52 57 61 56 72 76 98 118 125 137 134 109 125 134 144 140 143 136 140 139 129 110 93 91 106 95 113 114 88 85 83 77 60 38 27 24 23 21
42 45 52 59 35 73 79 93 101 111 124 130 134 128 124 122 125 116 111 100 85 78 59 58 81 86 80 84 74 63 47 35 33 32 34 49 41 30
43 42 51 56 71 74 70 83 94 88 100 123 129 130 133 127 103 132 118 126 108 106 94 104 113 110 100 99 95 95 111 140 147 122 74 50 45 41
39 47 60 56 62 67 57 64 70 64 87 98 95 102 111 110 112 111 118 125 121 133 110 132 138 119 151 93 96 88 84 92 117 109 74 72 54 60
46 43 43 51 41 46 66 51 44 63 85 87 89 97 103 111 118 113 105 116 129 123 103 107 111 129 128 104 74 80 87 80 88 69 68 56 51 64
33 25 21 29 42 51 63 47 68 104 87 95 100 103 110 109 106 102 91 88 93 102 98 122 121 131 128 108 87 102 106 88 99 87 103 102 84 61
27 19 35 40 51 57 55 69 90 87 92 102 107 109 107 96 88 88 91 95 93 99 103 115 111 106 117 120 118 111 72 105 137 158 168 165 175 167
33 45 46 54 60 60 67 77 81 86 96 106 114 115 105 100 104 113 108 110 103 123 107 103 106 113 102 107 110 99 115 106 124 138 119 110 110 102
83 70 65 58 57 62 67 71 84 96 106 119 129 121 110 110 114 121 120 119 117 116 128 158 146 125 122 108 110 118 131 129 129 111 84 85 103 103
105 83 74 69 62 60 69 80 93 95 105 113 113 116 115 117 116 120 124 129 119 108 101 134 148 151 137 110 113 128 115 115 94 91 99 75 74 111
108 101 104 86 69 63 75 97 109 98 109 101 108 106 114 129 97 119 117 118 120 137 119 142 152 154 138 145 119 72 128 114 113 99 112 129 95 123
125 116 111 93 80 86 99 112 105 102 111 106 108 111 117 134 125 140 150 149 125 114 111 139 170 180 192 182 154 120 90 112 124 114 101 97 90 28
117 111 118 106 96 106 113 116 122 122 119 117 122 128 130 150 135 147 138 81 84 121 118 125 146 67 118 139 180 167 138 79 80 112 117 81 53 51
130 121 118 116 117 127 128 128 126 126 130 137 138 144 149 160 149 144 145 137 138 146 146 136 124 137 137 159 165 151 131 86 68 42 51 63 119 87
142 121 124 124 128 133 136 136 142 140 150 151 151 154 163 156 153 148 144 147 144 138 134 124 128 144 158 174 132 139 118 109 82 47 82 69 32 12

GFSNE_con_3kmhel_072.txt.gz
Helicity
201 221 224 214 187 172 140 124 128 135 97 153 134 133 81 39 17 23 62 103 141 151 90 111 105 128 230 280 248 235 310 322 236 139 194 195 154 74
167 165 166 151 141 131 134 140 139 138 137 161 133 96 52 24 20 60 85 112 146 161 176 111 93 138 182 204 248 180 193 190 169 205 243 233 151 108
171 168 159 143 137 155 164 155 142 136 109 117 102 77 45 26 27 57 88 90 99 137 166 171 132 124 100 120 172 247 280 266 254 162 106 76 73 65
151 155 154 141 161 160 144 138 122 95 86 75 79 70 53 50 43 61 70 77 78 123 146 165 154 133 111 94 73 90 123 130 95 75 35 24 66 117
142 138 138 130 135 121 116 88 67 62 67 67 61 53 53 61 58 66 76 86 90 102 117 124 137 142 123 104 111 93 68 70 57 65 82 102 112 107
120 113 112 104 77 67 60 58 64 64 69 79 85 70 66 65 65 73 76 92 101 110 120 124 130 136 141 136 137 160 172 166 145 129 106 89 102 116
94 73 72 75 77 85 74 84 86 88 90 90 90 79 83 81 90 80 82 90 96 115 119 122 129 131 130 122 115 121 136 133 122 111 105 98 95 101
58 58 58 65 74 89 92 105 109 94 97 97 93 98 101 95 89 91 84 93 90 104 121 108 114 118 128 130 131 109 108 100 98 97 99 98 99 100
51 49 54 57 69 67 72 74 89 98 108 86 95 104 94 95 91 77 85 83 85 90 82 91 103 106 105 96 99 106 104 101 101 93 87 88 87 87
44 44 53 56 58 63 64 65 68 73 84 84 92 88 83 75 72 78 70 70 66 83 84 95 109 116 97 87 93 90 85 81 76 76 72 70 71 69
39 42 44 43 56 53 54 57 62 66 65 68 69 70 74 69 67 64 66 74 82 95 100 107 123 121 105 92 93 98 127 135 131 104 82 66 65 82
41 39 49 40 42 44 39 57 65 69 59 51 52 58 63 79 78 72 80 80 93 94 120 116 125 134 126 109 90 100 100 86 101 105 113 112 99 98
40 42 40 35 42 41 47 52 58 52 55 49 54 63 72 79 83 95 101 106 107 116 137 123 117 121 121 119 105 96 93 95 107 99 78 72 72 85
48 45 52 45 46 48 44 53 68 48 48 59 61 67 75 83 91 98 98 98 98 104 103 119 122 120 119 113 109 104 110 103 96 95 105 102 85 74
49 61 53 52 52 45 54 66 53 54 57 56 60 67 77 94 91 86 89 90 88 96 105 109 102 107 113 116 117 105 103 107 117 97 84 80 79 90
61 61 62 60 55 54 50 56 59 60 62 66 73 83 87 87 92 103 102 102 100 108 129 118 110 109 104 98 89 85 87 100 95 93 105 103 87 77
77 75 73 73 69 63 57 54 63 67 72 76 81 86 93 95 93 92 90 93 95 107 116 126 119 90 80 82 88 90 89 87 89 80 76 89 93 94
78 79 82 88 80 75 68 63 67 66 79 87 89 92 92 94 94 94 88 89 91 99 108 115 116 114 101 80 88 85 67 69 73 78 80 81 84 79
79 83 89 94 95 94 83 76 73 83 103 94 95 98 100 101 94 92 93 94 91 93 100 112 118 122 109 87 69 79 81 68 64 68 82 91 87 83
103 96 101 108 110 105 94 84 89 90 92 98 104 109 110 112 111 108 107 106 101 95 99 109 119 129 121 102 83 85 94 100 84 79 84 86 86 31
128 124 120 123 125 123 107 99 100 93 98 114 121 126 127 129 122 118 111 91 87 97 97 102 108 88 123 117 117 81 75 60 91 126 110 94 78 59
162 140 140 145 136 134 122 115 112 103 111 126 130 134 138 136 126 121 119 116 114 113 107 100 95 99 108 119 109 80 78 76 72 61 69 79 129 115
195 174 159 143 144 138 134 127 118 117 127 133 140 138 143 138 129 124 118 117 112 113 104 96 87 88 98 108 91 99 86 87 83 80 102 72 61 74

GFSNE_con_3kmhel_075.txt.gz
Helicity
156 168 178 182 206 202 170 137 139 131 105 190 138 136 116 92 75 19 10 50 100 139 107 104 92 71 73 84 171 220 258 75 187 241 234 171 154 132
145 156 160 158 155 153 140 153 138 149 166 164 135 107 85 53 35 4 26 43 97 134 147 118 90 114 125 172 235 262 243 217 197 200 204 198 188 238
151 161 165 165 151 139 140 136 140 138 124 125 98 75 64 66 37 25 31 49 62 104 110 112 108 123 134 152 187 131 101 119 148 145 169 186 148 195
140 158 156 147 148 134 128 132 120 113 98 90 72 51 55 49 47 42 44 62 70 86 93 107 120 115 132 136 127 108 91 94 85 58 94 149 102 75
167 169 164 142 142 138 129 111 83 56 51 51 61 58 60 65 60 56 62 56 73 80 96 105 123 132 146 160 151 122 93 81 73 70 71 88 117 147
156 148 155 142 122 82 71 56 62 61 64 75 84 65 60 63 59 83 94 92 95 100 98 99 111 124 131 136 144 167 178 164 142 124 119 123 118 131
126 112 101 74 84 98 81 82 87 94 103 99 99 80 87 88 91 88 93 92 86 106 108 108 119 134 123 134 139 153 148 137 148 158 152 147 137 134
81 59 51 54 66 80 91 106 108 100 103 103 95 109 109 96 99 91 79 88 107 77 95 97 103 115 129 139 141 129 107 101 106 117 131 134 117 108
57 43 51 52 61 55 63 71 88 100 123 108 119 125 110 106 83 78 94 85 79 73 71 88 100 102 99 90 103 97 98 101 99 98 91 86 88 94
43 42 50 47 64 56 62 56 53 65 83 92 109 109 100 95 76 75 62 62 62 81 78 82 92 95 92 87 104 100 93 96 97 95 90 81 77 79
48 48 52 50 53 44 51 40 39 63 62 70 72 72 72 65 67 71 80 87 87 94 101 93 101 99 85 87 94 93 96 107 125 128 113 92 77 69
43 46 50 62 48 38 33 48 50 79 75 62 58 59 53 75 71 80 99 95 100 93 119 115 118 124 128 102 92 91 104 95 96 92 94 101 95 109
51 45 54 52 48 44 47 49 57 58 69 56 64 71 73 81 90 112 118 113 102 99 121 120 113 110 114 112 105 108 100 107 119 126 119 92 77 77
49 55 66 59 55 49 47 48 55 54 58 69 76 84 97 104 107 109 110 110 105 104 92 123 118 115 113 113 118 118 126 128 124 108 115 115 102 80
60 68 71 60 55 46 49 53 48 49 62 73 74 91 103 123 99 90 86 86 91 100 94 92 105 98 109 124 124 106 108 123 101 112 116 106 103 102
60 60 57 64 65 65 66 57 55 56 65 69 79 97 110 104 92 101 113 101 101 100 91 114 115 115 104 103 105 100 110 118 112 100 102 108 100 101
74 82 81 78 81 79 78 77 75 72 68 70 87 91 94 99 100 109 111 110 105 107 108 118 118 110 103 105 108 127 126 111 109 110 93 87 85 98
105 94 86 94 93 91 96 97 100 80 75 87 93 95 99 106 112 121 122 123 127 124 126 127 127 133 126 96 97 116 98 94 96 91 81 79 69 88
113 108 106 108 115 118 122 126 119 105 110 116 109 108 112 118 117 136 127 125 126 127 129 132 153 150 136 127 115 85 129 129 116 90 92 92 82 96
119 114 117 123 132 136 142 144 146 137 127 117 121 124 125 135 148 145 137 134 134 136 139 150 155 147 159 149 149 109 89 108 128 106 93 97 91 37
153 135 132 149 155 161 164 165 168 164 145 142 145 133 139 160 156 148 142 102 105 142 135 131 137 93 153 150 157 144 114 66 85 138 136 117 94 76
185 154 158 179 170 172 184 186 175 165 150 150 146 140 154 166 159 155 154 147 141 140 131 126 129 134 152 167 133 95 77 89 77 49 46 78 148 146
198 200 208 217 206 194 191 189 184 168 155 154 154 162 175 173 162 154 151 139 142 141 134 132 131 131 135 136 102 115 95 105 119 110 114 71 58 73

GFSNE_con_3kmhel_078.txt.gz
Helicity
131 136 142 151 165 165 176 148 184 155 120 162 154 146 128 99 104 88 45 32 78 105 109 73 72 89 111 99 77 169 85 77 47 142 204 127 157 134
143 154 150 150 145 145 151 137 156 161 166 159 148 118 102 79 63 57 27 23 73 107 93 76 79 92 109 153 115 89 203 179 123 114 97 151 184 231
147 157 160 167 157 142 140 155 155 147 139 142 116 87 75 70 58 53 35 29 43 73 72 77 92 103 118 145 162 164 171 188 193 232 327 261 173 158
142 172 171 173 186 172 144 148 129 123 122 110 79 43 55 61 46 43 34 34 55 65 76 97 106 120 126 135 161 169 150 129 156 228 239 194 196 118
202 184 184 169 167 140 132 124 117 93 66 64 63 48 49 71 59 53 46 47 50 81 90 99 107 119 135 141 163 167 169 145 118 108 93 126 130 130
200 185 167 144 120 110 106 85 66 76 72 84 80 68 62 66 81 92 104 98 82 95 102 74 94 103 112 122 132 148 150 173 174 141 120 112 108 121
148 135 123 110 106 90 65 73 86 92 99 110 96 82 85 93 87 79 87 83 89 89 87 91 87 94 97 118 115 128 134 141 138 137 153 140 106 119
125 99 74 65 66 79 84 100 94 80 89 95 91 100 95 91 87 79 70 87 85 70 67 80 80 85 83 70 85 87 95 98 111 116 123 134 147 145
71 65 49 52 62 57 72 75 82 98 103 79 95 92 92 81 74 85 79 72 64 55 67 79 82 80 77 72 82 83 81 89 90 90 96 101 108 115
54 55 53 56 58 64 62 60 52 66 69 81 94 89 87 88 80 68 64 63 64 76 69 74 68 69 62 67 91 93 115 109 100 84 85 88 84 87
52 63 80 61 59 60 56 61 49 45 51 61 62 68 65 66 73 83 87 86 74 82 87 78 74 75 72 79 82 97 115 105 114 116 116 125 115 97
45 50 61 70 62 51 62 63 65 44 57 55 55 45 47 62 82 85 78 84 80 87 77 88 86 95 101 86 90 90 98 107 111 117 111 104 106 118
52 49 46 59 64 63 68 62 48 45 46 42 39 46 53 67 87 93 95 97 97 89 102 99 98 95 101 96 100 120 122 117 121 118 121 119 111 87
58 55 62 63 67 67 66 48 55 52 44 46 55 57 72 81 92 97 92 95 102 95 79 97 105 111 109 110 108 111 105 112 133 133 118 99 97 82
61 62 69 63 63 61 47 57 51 55 46 61 57 59 76 91 104 94 64 70 73 77 74 72 95 92 105 112 113 115 121 152 144 144 124 107 108 109
63 70 59 59 58 52 68 62 70 59 64 72 67 73 100 108 93 89 99 93 98 99 74 76 101 132 126 101 99 102 120 122 138 132 124 103 101 86
91 97 97 85 78 75 77 75 77 80 82 76 76 78 75 90 94 100 113 111 125 127 110 88 101 130 125 131 112 133 148 139 140 126 128 101 91 81
109 118 105 98 96 92 89 91 98 86 105 102 97 91 87 97 110 112 122 130 131 125 115 112 121 151 139 104 99 109 134 141 149 119 103 98 72 100
150 143 112 103 105 100 95 106 118 125 135 137 133 121 109 112 99 115 115 127 129 132 125 125 137 159 128 118 120 78 149 160 158 150 145 124 85 75
154 143 133 122 125 124 112 119 133 134 159 167 159 136 115 124 127 115 115 132 135 137 132 145 155 166 154 141 147 133 93 125 147 105 106 108 103 33
184 193 194 192 184 168 138 148 144 155 173 194 190 171 144 145 139 130 129 87 103 155 146 160 153 85 142 157 144 145 142 95 79 111 134 120 88 67
196 203 196 186 180 164 163 184 160 169 193 192 188 190 162 156 144 137 146 148 147 147 135 131 144 150 148 150 125 102 82 94 99 69 49 50 113 124
241 236 235 224 225 213 220 215 195 204 198 192 189 167 151 148 149 158 160 160 147 140 140 137 145 153 144 147 110 102 86 89 99 100 124 89 71 51

GFSNE_con_3kmhel_081.txt.gz
Helicity
158 146 142 145 155 161 171 153 160 163 179 190 140 128 117 107 98 93 85 77 85 91 86 80 72 91 102 106 79 129 146 74 49 77 117 111 101 76
161 151 153 160 170 163 166 166 170 168 179 147 142 138 124 96 95 85 86 74 79 85 89 76 63 80 94 108 117 122 135 207 88 6 56 136 115 108
168 145 156 162 169 161 154 138 139 129 130 160 154 126 114 97 66 53 48 48 49 59 64 68 75 85 103 122 143 154 139 204 239 247 224 285 263 240
167 164 169 174 182 159 144 147 135 135 126 130 114 82 61 53 50 56 52 57 52 66 82 83 91 117 135 144 150 167 179 186 185 235 244 247 248 280
195 170 152 152 159 155 143 135 116 112 105 90 81 59 52 63 72 76 86 84 70 86 84 101 109 115 120 121 128 157 180 206 171 169 176 188 182 162
194 182 161 151 135 130 132 122 105 93 57 69 73 66 73 77 86 94 85 88 81 82 88 100 104 107 106 114 125 132 147 160 187 197 169 149 150 167
179 167 145 135 125 105 81 89 69 67 76 88 89 81 82 84 76 73 74 65 79 92 77 70 78 78 87 81 80 95 108 118 127 137 136 130 119 123
122 115 99 101 93 84 74 80 77 65 84 88 85 83 84 73 67 64 64 71 64 67 65 70 84 75 73 54 66 69 80 99 106 121 125 113 105 96
103 89 84 77 67 82 79 85 99 101 98 71 76 68 70 62 60 62 62 64 61 49 61 58 70 61 56 60 68 76 84 93 104 108 111 114 112 109
79 52 52 58 47 57 61 65 65 65 67 72 73 63 65 67 64 53 48 49 54 56 59 64 65 63 59 64 76 91 97 108 118 113 105 105 101 95
64 64 58 46 48 57 59 61 46 51 58 62 54 59 63 66 60 69 73 72 66 66 73 76 79 81 71 88 102 127 108 102 105 108 104 107 127 120
53 61 59 48 48 48 55 52 60 41 47 53 53 45 63 65 73 59 60 69 64 77 69 89 89 99 95 84 94 90 100 134 135 129 130 146 124 120
47 52 47 41 47 45 52 57 50 50 46 51 48 45 53 59 66 69 74 76 82 80 81 91 94 98 99 94 95 89 110 113 98 107 116 118 118 129
51 53 43 37 40 44 57 46 58 70 64 58 57 51 55 59 64 67 68 73 84 85 77 87 94 100 104 99 96 101 78 104 119 128 119 113 109 106
61 57 50 54 55 60 50 50 56 72 70 71 56 46 44 54 84 79 74 52 51 56 61 64 95 91 99 95 96 113 121 139 130 139 121 106 112 131
53 57 59 61 62 64 65 65 76 74 77 76 63 57 71 83 71 79 81 87 116 90 53 60 86 105 99 99 99 113 135 111 122 124 119 118 131 118
92 98 96 94 85 78 78 73 77 83 89 93 88 78 77 88 76 86 94 114 126 127 115 108 100 101 126 132 128 123 130 150 151 137 134 109 122 129
112 119 110 102 93 80 81 79 92 88 95 94 99 95 88 90 90 104 123 130 134 128 119 125 130 123 114 91 95 104 119 141 158 143 133 105 79 110
110 136 142 137 125 121 130 132 126 122 102 109 125 124 128 126 101 120 119 129 129 125 116 133 137 139 121 113 103 83 141 158 149 143 145 139 91 79
139 156 143 154 155 156 172 190 189 164 128 116 140 150 157 164 154 135 138 135 125 120 118 136 142 148 156 152 125 127 121 144 164 121 125 131 101 32
164 161 182 189 182 171 161 168 168 171 173 167 155 174 183 189 160 149 138 90 95 130 123 145 147 89 140 142 149 121 124 75 100 158 145 119 92 82
152 147 169 175 186 190 188 193 206 181 183 162 164 191 207 201 170 164 146 133 129 128 126 117 114 123 147 154 121 99 89 97 105 74 54 62 117 98
188 193 190 193 186 190 198 207 217 208 207 172 185 187 199 194 179 149 143 134 136 142 130 112 138 159 138 153 102 98 83 95 111 117 124 85 58 48

GFSNE_con_3kmhel_084.txt.gz
Helicity
153 154 152 146 150 151 148 157 175 182 200 223 193 169 123 96 94 99 114 95 98 98 77 77 82 87 101 97 89 110 140 96 96 24 5 31 76 82
157 155 149 148 152 163 171 165 172 172 195 185 191 145 111 109 89 96 85 68 71 74 71 75 78 65 61 85 100 118 142 200 162 60 -12 43 73 60
155 158 157 146 147 165 177 162 160 157 172 198 152 131 121 99 92 61 54 62 53 66 56 67 77 84 71 88 121 141 143 178 212 226 34 15 126 249
153 169 153 159 169 171 166 160 127 132 149 169 158 131 109 79 67 62 75 74 66 67 73 78 76 69 84 94 121 155 177 147 179 242 363 441 437 340
187 169 157 147 140 138 147 151 152 145 143 144 138 119 79 60 85 91 92 82 80 91 89 91 92 90 92 94 127 138 159 187 162 157 166 241 209 198
181 190 162 137 120 124 125 125 114 112 113 117 117 97 88 92 106 97 91 87 78 76 81 82 85 89 88 94 112 124 129 133 152 168 166 129 147 184
165 161 169 150 119 101 99 111 112 106 106 93 99 98 89 97 88 85 82 68 72 83 68 75 69 74 79 65 65 90 99 106 106 113 121 146 166 173
162 178 162 153 149 110 106 107 72 57 76 88 94 95 78 79 72 75 75 76 71 76 72 72 71 73 70 56 64 75 83 93 91 87 100 113 113 114
134 108 101 90 86 73 65 91 105 92 81 71 77 78 69 51 69 77 74 78 72 67 70 72 73 70 61 62 78 89 98 100 92 97 94 94 96 95
109 93 86 73 61 54 53 63 78 75 78 81 74 64 54 55 66 69 68 73 75 73 79 84 77 70 69 74 98 103 110 111 117 125 121 119 115 98
85 60 52 47 34 44 59 69 67 69 72 62 52 51 52 46 56 74 75 83 82 82 91 85 87 80 78 85 96 114 119 127 125 134 123 111 118 142
68 48 32 31 37 50 61 62 64 60 58 58 63 72 70 66 67 55 66 72 75 86 76 85 85 93 92 80 88 110 124 136 122 109 109 117 124 115
56 44 41 32 49 52 58 58 48 51 43 58 58 58 63 62 62 65 69 68 75 73 72 82 92 96 104 101 97 94 105 101 93 97 109 104 111 106
51 36 49 47 51 50 61 45 52 72 70 65 71 65 59 54 52 57 57 63 67 71 75 87 94 95 97 101 112 120 109 89 104 119 120 144 134 126
54 51 42 39 46 51 47 47 55 77 76 85 77 72 62 58 77 62 57 69 76 64 66 72 95 86 99 105 115 129 129 117 97 119 119 81 97 109
48 53 55 56 63 66 59 53 87 81 86 89 88 81 89 94 78 77 69 82 93 79 72 71 70 96 106 107 125 124 130 115 126 116 87 106 120 105
84 89 95 94 86 82 77 74 82 85 91 99 99 107 90 81 80 100 87 98 102 111 109 100 98 91 102 133 119 124 120 140 153 148 131 108 111 119
108 116 110 112 110 108 104 104 109 100 122 153 168 145 73 106 121 112 113 110 113 125 130 131 127 128 113 95 93 98 98 126 148 144 137 120 85 110
92 117 110 114 113 131 147 163 157 154 169 176 193 154 96 119 110 130 129 133 132 137 132 138 147 150 133 112 104 69 137 142 156 145 142 144 89 78
131 131 135 139 143 140 146 154 159 172 196 215 209 191 128 134 152 145 155 165 157 144 141 148 148 148 153 132 95 113 102 149 164 146 147 144 106 34
161 179 174 215 176 188 166 169 185 184 201 217 203 212 167 182 158 160 174 143 139 155 139 148 134 84 143 142 119 135 118 52 89 160 148 129 100 93
140 142 143 161 165 159 167 187 186 180 199 211 203 195 184 190 172 180 200 182 168 145 139 136 131 143 149 154 119 104 103 105 78 60 57 87 139 114
147 150 151 161 175 172 171 180 180 185 204 219 237 234 184 187 171 169 173 174 152 149 138 122 130 144 141 145 104 107 96 107 119 121 127 106 65 37

GFSNE_con_3kmhel_090.txt.gz
Helicity
73 137 85 114 137 144 141 135 147 141 142 183 198 182 202 184 176 150 137 82 80 93 84 94 84 59 46 81 93 109 65 62 69 91 32 -1 -2 -17
78 78 93 124 143 150 147 142 153 168 170 197 200 183 180 183 159 154 104 65 107 77 71 78 85 72 67 60 98 120 66 76 79 124 27 5 -1 -3
92 98 114 136 146 150 146 144 151 175 187 200 203 193 219 193 146 121 46 59 105 71 64 68 69 62 56 51 88 121 104 119 133 217 223 38 39 72
95 99 100 119 134 134 141 148 153 165 178 170 177 193 178 159 147 102 93 114 106 79 70 63 66 63 62 79 96 130 128 144 150 217 403 351 150 129
114 125 134 138 128 130 130 134 149 156 157 163 161 172 179 158 135 96 95 97 82 93 85 87 87 78 79 88 116 138 135 140 142 176 300 392 422 360
113 123 127 126 111 113 119 123 135 143 149 161 175 151 130 111 99 85 81 89 73 79 93 91 89 94 84 88 111 121 119 120 130 139 180 229 269 310
115 123 118 110 113 115 125 119 118 126 133 131 148 141 114 91 78 62 73 77 73 76 76 79 76 72 80 91 82 103 116 116 119 119 130 156 178 214
118 135 139 148 160 152 137 112 104 101 100 102 110 100 79 54 60 69 82 80 64 70 73 67 69 70 78 88 93 99 118 112 115 116 116 96 126 144
136 139 136 145 153 151 131 129 109 80 35 24 38 52 52 58 85 77 62 70 65 60 61 67 77 71 80 91 84 89 101 115 119 109 113 113 115 111
136 126 122 117 110 108 101 81 59 47 30 32 26 54 70 70 65 55 59 77 71 60 67 74 80 76 73 94 111 91 95 110 114 118 120 117 129 142
129 125 114 102 71 75 77 66 46 39 45 68 75 83 76 71 71 84 60 60 57 57 69 69 76 76 74 76 85 105 98 116 115 123 120 124 132 139
123 106 82 79 55 50 46 34 44 25 47 77 79 81 81 63 62 44 47 57 53 57 51 68 66 79 74 73 77 84 89 112 111 111 113 117 131 119
107 108 91 50 34 22 33 45 54 40 50 53 72 80 70 73 67 59 47 53 60 58 54 70 66 66 69 64 67 73 79 80 78 92 109 124 134 121
115 106 78 43 33 27 47 46 41 62 70 64 63 63 69 76 62 72 70 70 65 61 66 79 87 83 76 69 66 82 78 76 83 93 93 112 142 121
114 85 59 40 22 29 32 38 62 97 74 75 87 101 91 86 102 100 96 90 72 65 92 65 103 104 91 68 70 83 100 100 88 85 107 116 97 99
96 89 73 60 46 51 64 71 87 86 85 86 92 100 111 120 123 114 105 85 78 97 73 73 68 89 70 62 81 94 103 109 107 106 89 84 90 85
159 133 119 106 90 82 82 75 78 85 96 110 115 114 118 121 125 147 139 127 102 83 81 79 67 59 59 76 85 108 126 122 128 113 97 93 108 99
145 127 98 94 91 92 87 81 87 83 100 117 124 119 119 145 169 198 199 141 113 82 98 85 89 90 81 68 57 126 139 133 135 123 124 103 97 125
106 120 108 106 103 118 118 120 112 114 138 134 135 133 151 147 147 194 204 164 122 97 92 111 113 120 114 107 110 57 134 125 136 135 123 113 96 92
115 155 154 157 133 134 142 139 131 140 139 132 145 146 174 181 183 183 196 172 154 147 122 135 136 148 150 118 116 126 60 151 137 137 136 116 83 26
116 152 197 186 172 151 144 146 146 156 172 176 162 172 185 193 187 187 177 139 139 161 141 130 128 115 181 171 145 137 114 44 97 139 123 107 92 79
154 114 105 139 149 147 141 135 127 121 138 152 149 162 184 216 215 208 214 199 169 183 152 152 183 214 203 180 142 128 119 97 76 48 55 94 142 106
148 144 140 130 127 125 131 139 137 136 146 151 161 177 205 230 252 261 248 220 187 177 174 179 187 198 177 171 119 109 98 89 94 100 104 72 47 30

GFSNE_con_3kmhel_093.txt.gz
Helicity
39 35 116 134 117 117 106 118 122 106 96 135 161 147 156 158 143 178 165 176 119 66 64 87 94 91 88 86 90 109 101 72 63 74 78 21 -14 2
50 98 102 115 128 131 132 133 131 143 144 168 149 160 152 157 152 162 166 157 133 48 69 96 92 84 69 76 82 98 102 71 66 88 107 13 3 1
111 110 103 116 126 129 130 131 135 149 165 192 196 185 178 179 183 165 132 116 71 56 84 80 78 78 76 68 65 78 96 96 84 138 195 45 25 23
108 102 99 119 115 123 122 125 134 156 179 163 177 180 180 193 177 143 110 83 72 93 98 75 60 76 57 69 72 93 98 110 113 173 275 315 90 104
107 110 125 131 120 124 121 120 132 152 168 174 172 166 167 171 180 153 100 82 81 88 74 75 68 73 69 80 91 107 114 117 130 166 295 398 454 271
109 117 123 130 119 118 125 129 143 151 159 155 167 170 154 131 140 124 102 77 65 55 54 65 79 87 83 84 92 100 116 112 106 139 227 295 373 391
103 109 121 121 120 127 139 137 143 156 155 144 151 149 133 113 86 81 79 68 59 59 51 62 63 68 73 87 62 91 109 107 111 129 171 203 212 241
106 128 142 149 148 147 143 131 120 123 135 132 124 114 103 68 40 42 68 55 43 63 55 58 61 58 61 73 88 95 104 110 116 116 131 160 176 181
115 132 141 146 155 168 164 163 146 124 85 68 71 57 39 28 55 46 57 52 63 58 47 44 56 59 64 76 77 92 88 105 118 112 110 125 141 150
118 134 133 132 135 139 128 125 119 97 66 39 23 24 33 53 57 49 50 71 67 53 50 40 56 59 57 80 91 89 89 94 99 108 107 120 144 157
114 128 123 119 111 112 112 118 101 82 52 46 62 84 84 58 60 54 55 59 57 47 45 37 44 51 51 57 71 102 90 94 89 87 93 103 117 117
129 127 97 91 85 95 98 89 103 65 42 49 64 88 63 47 48 41 43 43 57 48 38 31 38 47 49 53 58 66 63 88 89 94 83 87 98 100
122 129 115 81 81 75 70 56 46 41 54 71 72 78 64 55 59 70 81 62 42 37 41 54 56 50 57 61 54 54 59 69 72 78 92 104 113 108
119 125 107 87 69 50 50 37 28 61 55 50 63 71 62 47 55 77 87 87 84 76 70 60 70 76 83 79 81 70 58 64 69 73 74 77 104 114
111 98 85 78 64 51 50 36 43 54 58 58 54 60 62 72 84 98 99 92 83 67 53 50 67 102 82 86 98 114 110 69 63 70 81 92 95 100
100 93 92 93 77 73 72 49 68 66 72 69 71 82 94 96 94 94 97 94 89 72 68 63 67 71 69 64 73 80 63 73 69 71 79 84 93 93
161 145 127 131 114 104 100 84 80 84 81 90 89 93 93 99 102 109 102 127 118 106 86 69 55 60 64 56 70 59 57 75 75 80 88 96 104 92
187 168 137 125 121 108 83 81 81 80 88 91 92 88 93 102 110 111 135 137 137 132 121 95 72 62 66 60 40 67 72 77 87 93 107 111 114 115
164 139 132 137 131 137 83 83 86 90 108 99 93 93 99 106 109 125 139 151 135 121 133 120 97 60 78 78 83 38 82 94 100 106 111 118 116 108
151 115 97 125 135 129 123 123 92 96 97 108 115 111 123 126 141 145 156 167 112 130 134 135 111 78 106 99 103 108 47 88 106 113 123 109 77 54
152 129 112 139 144 141 150 156 163 132 130 135 129 139 142 158 137 131 120 106 114 131 119 111 91 76 133 145 113 112 108 46 74 104 123 115 101 91
150 139 147 98 128 152 146 145 127 102 112 112 111 120 133 149 138 134 130 141 161 152 127 119 140 161 163 127 97 96 98 95 80 55 38 75 107 105
151 149 144 130 128 103 112 120 118 118 128 131 140 136 151 154 148 147 150 167 182 203 157 128 153 160 140 129 98 94 88 90 85 84 72 42 25 31

GFSNE_con_3kmhel_096.txt.gz
Helicity
121 100 84 96 109 116 116 133 129 135 114 143 109 119 146 166 176 173 199 193 149 162 103 91 74 70 77 88 104 105 103 86 79 74 73 64 45 -30
114 101 98 116 110 130 142 143 150 152 169 161 145 138 140 174 184 169 166 168 186 147 88 71 69 80 72 74 93 82 90 95 84 86 101 75 3 -9
145 100 106 138 151 166 157 151 136 135 134 162 171 166 163 171 178 166 155 170 170 150 98 50 80 78 70 58 66 77 98 100 85 90 171 101 21 18
84 98 115 134 128 134 134 130 133 147 170 143 174 169 171 169 172 174 163 151 145 118 77 93 78 72 57 54 62 68 87 92 99 115 210 197 62 26
119 111 118 122 126 134 126 126 130 149 158 170 185 187 187 180 188 168 156 140 94 61 73 97 80 63 44 46 56 78 88 100 107 134 217 334 319 147
126 120 121 125 132 125 122 124 136 144 156 155 173 187 179 164 162 148 123 88 66 51 66 67 61 55 53 52 65 82 101 113 115 135 193 302 414 406
109 111 119 137 152 139 119 127 132 143 149 154 168 173 157 143 131 107 91 66 43 50 48 44 46 53 58 61 64 88 98 113 120 116 170 227 249 305
90 103 120 136 124 132 139 151 143 123 116 130 141 145 126 108 94 80 54 61 46 46 47 50 47 64 62 60 66 84 100 106 121 121 130 164 199 166
94 103 125 139 142 135 158 158 155 143 117 98 100 88 81 57 49 45 45 51 58 52 41 37 50 52 55 58 70 73 77 100 114 118 137 146 146 131
60 79 97 115 129 117 118 126 130 121 111 90 63 62 45 54 47 49 48 65 57 47 35 54 41 42 51 54 68 77 101 111 109 112 124 131 157 141
60 75 105 124 118 110 117 116 107 110 103 99 87 65 72 86 65 62 78 76 50 53 42 39 50 48 32 39 56 92 92 102 97 103 107 118 127 123
75 86 95 119 106 102 105 102 107 104 94 83 74 71 61 81 66 55 52 64 63 51 42 44 38 39 41 41 49 54 49 68 87 107 109 115 129 111
82 78 90 97 106 97 102 116 102 94 79 68 60 61 73 90 81 67 60 66 61 48 55 54 32 41 41 42 48 52 54 57 61 71 93 108 118 129
90 86 93 122 114 96 104 108 88 80 61 55 91 93 69 73 82 89 100 91 93 82 78 69 58 48 57 50 69 71 57 60 63 64 68 65 72 90
120 130 132 120 110 89 86 88 70 73 76 87 56 61 72 83 93 89 91 94 97 92 74 57 48 46 50 72 99 76 66 70 77 79 63 58 65 73
111 134 154 129 103 96 103 85 75 82 79 75 68 87 96 94 92 98 104 102 102 94 72 73 71 63 54 56 62 62 62 76 76 73 73 69 66 68
173 202 158 146 129 117 112 98 91 95 83 85 89 99 98 95 92 99 105 107 107 106 96 99 88 77 50 43 51 42 49 61 67 72 77 76 74 71
212 183 156 133 116 116 123 128 121 107 100 99 91 101 102 98 102 106 112 110 113 112 114 133 128 94 68 38 33 55 59 58 68 70 72 83 91 75
163 159 141 130 128 140 145 154 159 145 132 115 101 111 108 105 97 113 118 117 114 124 132 147 113 80 81 61 72 29 69 87 96 90 77 76 92 105
154 158 143 131 126 132 140 150 165 169 117 104 109 116 110 118 124 128 121 129 130 138 135 124 100 104 106 87 91 100 48 92 96 90 85 80 74 45
149 140 136 121 123 113 124 140 154 148 131 125 128 168 142 139 137 139 138 121 114 115 105 99 105 109 137 132 104 84 81 63 70 96 106 99 97 92
140 140 146 141 131 107 112 127 132 140 168 152 128 128 130 139 124 123 136 132 124 123 106 123 181 175 142 117 84 75 90 95 87 46 48 65 113 119
156 161 158 154 147 130 114 117 123 133 137 129 122 119 134 139 125 130 138 134 141 143 146 154 175 160 133 111 84 84 87 89 88 88 87 54 32 26

GFSNE_con_3kmhel_099.txt.gz
Helicity
98 104 113 121 130 133 167 166 124 132 128 177 176 143 125 124 141 163 189 202 192 198 187 175 146 132 89 76 81 93 108 89 97 82 70 83 88 54
131 136 139 143 124 121 127 134 141 143 169 171 172 138 121 126 149 176 200 197 199 185 171 156 122 91 70 83 78 92 96 84 80 94 87 99 85 26
139 130 131 140 150 142 159 148 139 131 127 142 191 184 139 152 163 183 191 182 178 172 165 147 95 71 72 66 71 76 84 88 103 103 115 155 94 29
135 134 146 150 158 139 122 125 139 150 159 135 178 172 178 170 185 188 180 184 176 177 143 89 19 73 74 55 61 63 72 85 76 110 117 202 139 48
140 138 150 150 118 133 144 151 168 162 168 170 178 194 184 183 195 195 174 162 148 124 81 62 67 59 53 50 47 49 73 63 75 85 123 292 274 135
161 164 153 139 121 142 140 137 136 137 142 154 155 196 181 179 171 162 151 127 106 78 62 68 58 39 34 42 48 63 84 89 67 81 122 254 409 421
157 158 157 167 204 198 151 120 113 132 131 133 165 181 162 159 144 132 119 102 66 51 54 51 31 32 33 51 50 66 80 98 87 90 120 175 326 380
149 143 150 130 129 135 137 162 181 132 117 124 135 143 135 138 133 115 99 93 88 57 44 48 43 64 61 49 77 73 92 102 111 83 99 162 176 181
144 136 123 112 126 132 148 162 168 160 157 144 120 115 105 97 103 77 58 65 83 48 23 56 36 45 40 51 57 69 76 87 102 108 112 164 158 173
129 106 95 100 95 110 113 148 145 137 139 122 104 113 87 81 67 56 66 90 84 62 47 100 57 54 34 39 52 65 81 88 96 105 107 117 136 168
101 91 90 96 85 100 127 139 140 143 138 131 142 141 131 105 78 90 104 96 102 74 43 60 61 62 51 51 40 51 66 77 89 98 113 139 148 125
112 102 80 82 76 82 111 142 136 134 136 134 133 121 95 105 94 86 84 77 79 73 61 78 84 53 51 37 39 19 36 59 68 92 97 123 146 129
135 112 97 48 52 61 96 152 141 153 128 131 121 105 93 90 80 91 96 78 78 81 57 61 54 38 34 33 18 23 36 49 60 73 89 106 121 129
144 121 100 50 49 63 114 153 161 147 142 129 122 106 89 101 109 94 106 110 94 83 96 78 58 50 29 19 15 44 55 71 68 71 81 84 90 100
170 142 137 101 78 89 98 141 133 140 137 140 126 120 114 134 122 116 122 121 124 112 107 102 82 58 45 43 42 47 66 76 64 75 80 79 85 91
176 191 164 131 111 132 133 158 150 125 130 126 126 132 144 116 102 104 105 102 112 116 112 99 79 65 68 52 49 44 56 60 60 50 72 85 88 82
207 208 196 176 154 160 181 171 139 131 133 125 158 150 118 106 109 118 120 126 111 122 127 113 80 77 78 89 57 48 44 64 63 63 70 70 66 72
230 196 172 183 187 173 160 157 162 143 143 144 157 138 123 110 118 127 126 124 115 120 134 144 132 112 99 88 84 67 54 63 70 86 77 76 78 69
185 174 175 202 182 161 161 165 159 165 176 176 166 155 181 138 91 126 122 123 113 123 151 163 150 139 130 103 95 34 70 78 86 74 74 79 86 94
176 173 176 178 158 154 157 162 169 182 177 186 178 207 171 147 136 119 127 124 123 142 147 155 155 146 127 98 113 93 30 80 89 79 83 77 70 40
147 156 161 166 153 139 138 161 176 171 166 178 188 180 143 134 125 139 118 101 123 147 138 134 126 99 155 150 123 91 84 37 69 112 110 99 86 76
135 143 153 161 166 156 149 164 163 143 144 155 156 151 144 151 152 151 150 149 126 121 121 137 162 166 166 142 112 95 94 107 73 50 49 71 115 104
145 164 168 171 190 191 174 162 150 141 148 150 156 155 186 164 123 124 118 120 116 134 153 167 189 176 132 119 99 111 105 116 118 100 95 61 41 34

GFSNE_con_3kmhel_102.txt.gz
Helicity
100 88 79 72 87 103 130 149 158 134 104 176 200 177 142 134 121 131 154 178 186 207 197 186 185 162 130 101 80 70 74 75 72 87 85 67 74 82
97 91 95 100 115 132 153 166 159 153 140 163 176 152 129 119 118 147 154 180 206 204 183 172 161 135 105 79 78 69 61 81 75 72 70 75 86 85
159 144 134 129 130 147 150 158 158 155 140 156 154 173 146 123 133 155 152 157 183 185 183 150 147 126 63 55 63 53 50 66 80 76 76 92 117 89
182 168 154 157 151 163 160 144 133 138 158 140 178 176 170 144 145 143 145 155 167 179 169 135 107 83 22 46 40 40 41 48 81 82 94 152 165 81
181 160 139 139 130 148 171 156 157 168 167 157 164 170 176 178 180 170 151 147 146 138 122 105 87 60 54 32 31 27 37 28 55 61 88 166 309 121
172 157 155 142 150 163 190 174 165 156 151 147 158 180 181 177 164 149 139 138 135 111 90 73 55 34 28 28 31 32 37 42 57 64 87 159 372 298
189 179 183 199 212 200 196 173 145 149 148 155 175 203 184 153 136 132 132 135 99 82 63 58 36 21 18 35 23 39 45 67 57 69 92 171 283 362
203 192 206 204 202 193 199 188 157 124 113 131 150 134 116 123 136 136 148 133 108 57 61 48 35 41 47 47 67 61 58 58 107 126 135 130 250 231
194 194 197 180 166 177 157 144 145 162 150 141 124 108 105 113 133 123 101 90 105 48 53 57 31 41 34 44 53 68 66 84 90 90 105 158 153 129
191 192 196 172 163 170 159 136 119 137 143 139 123 98 91 107 111 93 88 111 105 61 63 85 52 56 35 28 33 38 43 52 73 90 102 110 183 180
204 191 178 170 113 93 140 123 111 139 148 132 126 133 153 115 126 150 138 148 99 80 61 69 48 62 55 38 35 44 46 50 59 68 94 120 133 147
188 174 131 161 93 71 137 126 125 124 159 169 158 152 160 157 114 75 97 119 125 103 47 74 78 81 60 27 31 38 34 32 47 69 99 125 134 113
212 211 193 116 91 67 81 129 101 137 143 160 143 148 162 133 115 108 88 87 105 77 41 74 75 62 41 35 22 15 17 25 39 60 85 112 127 115
216 215 174 101 100 74 84 84 85 130 196 175 163 142 148 122 113 111 106 111 83 69 85 86 71 56 49 34 19 24 29 37 51 66 72 82 96 101
210 197 140 106 86 95 80 77 110 191 192 185 154 143 132 130 124 134 144 133 143 127 112 100 91 97 71 42 23 15 26 35 59 75 83 79 70 82
220 188 183 180 163 160 144 120 167 169 196 185 169 164 183 146 124 134 127 106 130 113 115 117 106 106 91 59 55 38 26 28 52 60 72 82 83 83
290 291 248 269 249 222 191 174 180 168 180 177 185 191 182 154 128 117 118 118 110 114 118 117 108 100 89 83 69 48 40 45 55 62 80 78 77 74
330 285 226 213 194 186 178 175 178 156 160 184 192 187 173 146 143 143 131 126 119 126 135 136 147 141 120 82 70 91 71 62 57 71 77 79 84 83
205 199 188 174 156 144 164 193 184 162 200 206 198 185 181 153 123 143 133 150 119 117 134 151 148 148 145 120 108 64 88 67 76 82 70 71 73 82
201 210 196 178 157 154 182 185 182 212 205 189 181 183 190 178 179 168 190 156 144 118 135 155 144 139 161 108 112 89 66 80 90 80 72 79 68 44
182 179 180 174 169 164 149 174 182 178 184 196 189 182 173 189 180 179 150 117 111 130 117 118 110 117 175 174 113 88 78 37 75 99 87 106 98 90
154 157 161 164 148 143 147 144 146 136 168 180 163 163 163 166 164 161 146 139 115 112 115 139 163 183 174 133 91 93 88 86 56 42 65 83 92 74
137 142 144 149 141 141 150 147 142 133 144 153 154 161 171 162 146 140 147 165 168 159 114 134 136 171 157 142 101 94 86 95 115 118 101 48 32 29

GFSNE_con_3kmhel_108.txt.gz
Helicity
189 188 219 91 68 119 163 144 150 128 135 146 176 184 189 176 144 141 128 118 124 150 161 154 158 159 166 154 125 88 72 48 46 40 41 35 22 36
134 106 43 18 63 135 183 190 194 191 170 174 164 174 165 169 149 145 118 108 120 114 136 153 153 162 166 152 123 77 44 33 37 32 31 22 11 39
125 129 68 108 112 153 164 195 184 193 195 197 195 176 199 191 171 141 116 95 113 130 121 140 161 157 147 131 98 61 26 29 34 17 22 22 29 77
133 145 171 186 151 186 162 177 193 190 186 191 205 218 199 161 154 146 123 113 110 131 137 132 113 124 125 95 69 20 30 12 31 11 30 45 85 138
166 157 162 205 192 194 216 202 231 197 217 193 197 206 213 204 173 154 142 124 121 123 125 120 120 117 90 63 38 17 19 22 14 25 53 66 103 184
159 166 162 148 196 195 194 230 172 229 212 207 202 213 205 192 189 162 136 130 123 123 107 112 117 96 66 63 30 19 19 2 5 31 78 80 115 163
141 152 164 181 180 187 184 235 263 189 237 232 231 219 222 230 196 151 134 133 118 125 120 121 111 90 64 43 22 10 15 12 9 46 83 81 116 176
152 153 150 136 132 120 123 153 216 253 234 272 236 209 224 211 210 175 179 156 125 123 134 109 98 72 52 21 27 38 44 20 41 97 142 146 138 201
173 186 198 193 170 140 160 150 136 144 196 227 238 222 213 191 211 196 186 173 139 111 129 85 79 62 50 45 40 35 32 41 77 128 177 159 184 177
169 166 182 207 193 215 212 211 192 204 169 187 184 163 152 162 180 179 174 189 172 130 109 87 71 69 69 57 48 39 25 52 64 89 138 160 153 161
154 153 162 174 148 96 188 188 191 196 189 159 143 126 114 130 173 250 221 201 155 124 94 98 67 93 79 47 37 33 50 67 69 87 108 130 143 164
161 161 108 138 118 87 180 199 201 185 215 221 194 154 141 149 131 162 210 185 186 155 86 117 125 110 92 51 52 48 51 50 63 82 96 106 110 108
135 139 147 83 78 78 112 186 177 187 163 196 191 195 194 200 212 182 176 195 177 140 73 134 136 117 82 62 55 51 45 43 53 54 66 91 104 101
125 125 113 96 73 84 102 114 91 133 233 223 211 205 187 182 206 198 157 151 139 106 70 125 108 89 85 78 70 52 50 39 36 36 44 59 80 111
117 133 124 67 56 47 70 69 77 197 223 254 249 210 165 173 210 235 227 195 193 165 120 110 110 83 88 83 62 55 52 41 40 33 38 59 75 86
112 117 139 130 71 92 110 124 214 262 243 236 254 215 231 199 187 179 177 184 190 171 150 116 105 97 104 105 92 80 62 58 42 24 16 30 50 69
93 97 161 219 205 169 188 214 235 246 243 269 254 245 239 228 201 153 162 189 160 156 159 157 140 116 112 100 99 93 79 66 50 33 33 35 41 47
60 84 113 140 154 183 184 227 235 211 264 287 240 270 247 210 159 150 162 154 150 142 162 165 179 170 160 126 98 112 98 80 66 49 42 39 56 64
57 90 118 140 153 179 188 191 195 239 284 278 247 249 219 193 131 150 142 146 141 154 161 175 175 168 183 160 149 79 104 93 91 80 52 46 50 63
55 85 95 122 161 160 194 209 218 258 253 258 245 214 193 185 165 133 127 111 126 159 179 167 163 136 144 166 174 136 82 111 99 84 60 58 45 41
49 58 77 116 165 192 222 232 231 229 250 264 233 193 199 156 140 140 133 101 120 167 154 136 126 151 185 170 195 191 173 73 95 88 72 73 66 75
45 37 60 97 149 187 212 216 205 198 200 204 195 177 177 165 132 144 140 129 144 152 155 218 233 239 187 175 195 197 173 156 70 81 66 58 56 61
42 47 46 83 128 153 184 193 158 141 161 180 170 176 162 163 135 149 151 134 162 184 208 263 235 213 170 171 194 201 180 140 98 99 80 36 33 43

GFSNE_con_3kmhel_111.txt.gz
Helicity
121 122 201 237 192 292 289 200 222 184 151 186 210 199 190 177 148 152 132 128 125 136 154 155 142 144 135 126 124 113 88 66 38 32 31 36 34 40
146 165 202 240 195 193 249 151 150 167 151 206 225 190 161 160 148 146 146 140 121 109 130 148 156 153 135 132 124 112 83 49 33 37 36 32 40 43
121 149 136 147 150 178 179 148 188 232 220 223 227 179 198 198 183 177 168 141 132 108 114 136 140 142 141 126 105 100 62 34 34 48 28 34 47 68
86 123 134 161 163 196 201 194 186 215 273 260 264 239 218 198 188 180 160 152 140 126 129 139 134 124 133 103 88 75 43 36 42 32 39 55 58 86
106 103 103 143 158 189 168 239 246 212 300 341 222 247 269 240 244 200 168 162 147 138 139 145 126 112 108 95 93 49 48 47 37 33 36 69 82 100
112 114 111 114 116 134 211 255 319 247 314 389 232 325 250 194 229 212 171 156 140 161 138 136 133 129 115 115 87 55 50 39 39 37 51 91 97 80
120 118 129 139 138 156 196 177 209 212 291 343 228 345 325 232 204 196 160 155 130 154 165 156 160 133 110 117 80 52 45 43 41 55 78 102 85 73
184 190 185 175 165 143 145 159 168 233 212 306 305 242 312 326 216 212 210 203 159 144 177 148 139 116 110 89 62 58 47 51 62 81 97 108 122 110
148 152 165 188 190 200 171 149 146 118 153 231 192 185 245 229 219 231 251 224 182 156 195 133 116 111 99 76 66 60 59 46 63 92 122 116 129 148
181 179 174 164 174 175 173 194 225 177 157 207 163 181 140 154 179 221 215 214 207 178 161 135 119 124 99 81 58 61 63 61 68 88 109 111 127 141
169 160 167 167 157 134 205 208 208 203 248 241 201 160 93 106 181 254 248 236 189 157 150 127 122 128 101 86 74 66 58 55 68 92 104 104 103 142
146 144 125 138 121 80 134 159 195 159 173 184 174 179 137 157 109 176 208 202 207 162 128 151 155 136 126 90 96 77 68 64 75 85 99 105 111 92
154 141 124 105 109 96 49 149 141 161 137 215 244 248 221 187 197 187 163 203 206 170 123 190 154 155 130 119 103 69 65 65 65 62 69 87 111 90
172 132 88 74 105 81 105 73 78 116 179 198 215 221 229 217 231 228 177 199 188 159 132 144 135 135 141 143 104 87 72 52 41 35 46 68 86 97
128 101 117 79 90 110 65 66 66 194 193 211 204 213 231 222 281 308 274 247 233 223 188 150 129 118 122 118 97 97 74 44 48 40 57 66 66 74
92 78 79 88 65 119 114 98 193 240 246 194 215 241 254 240 273 288 314 215 218 221 189 151 134 123 124 121 116 106 76 63 53 55 45 37 36 60
64 63 62 65 45 101 166 154 169 189 235 250 240 234 234 227 245 287 296 266 233 236 180 178 162 135 116 121 132 121 95 93 74 68 65 51 41 42
33 27 39 58 73 75 124 147 212 152 236 268 237 201 240 239 249 252 310 298 253 209 155 164 185 191 171 143 109 135 115 109 88 72 64 55 52 49
31 4 18 53 84 97 109 143 169 187 214 245 244 222 234 243 216 259 271 273 200 138 147 162 156 173 176 135 144 102 133 125 112 96 74 66 55 46
27 19 16 37 48 55 93 132 147 164 188 204 210 223 232 258 240 225 216 207 163 150 171 150 131 132 136 132 133 148 105 143 124 118 111 82 53 39
19 16 26 31 29 52 81 130 150 165 172 180 202 233 255 256 235 212 187 153 156 179 146 106 88 110 162 175 186 184 159 109 123 131 118 131 104 64
21 8 17 24 32 33 60 101 138 154 175 192 208 227 262 254 241 207 189 167 150 149 142 149 159 191 186 169 175 179 190 175 121 132 110 92 74 41
15 12 14 13 24 26 41 74 116 136 162 191 222 225 245 224 191 170 167 163 168 188 185 198 175 200 169 175 194 194 196 187 184 152 124 54 51 81

GFSNE_con_3kmhel_114.txt.gz
Helicity
102 111 133 109 140 152 185 280 237 237 257 241 286 247 254 252 219 197 178 141 132 129 170 172 170 166 153 142 144 140 119 93 72 50 31 44 32 24
157 151 175 126 136 172 207 310 309 218 250 212 223 308 272 285 192 212 167 140 120 137 132 133 143 140 138 131 121 122 107 91 80 50 50 49 40 25
97 90 74 75 113 137 209 223 245 272 230 278 232 370 288 300 232 180 171 143 158 102 88 99 111 118 116 115 114 117 100 95 74 61 59 62 57 29
87 73 79 93 114 138 150 175 236 279 295 212 253 306 303 225 230 201 180 147 149 108 89 82 91 103 110 107 99 97 92 83 57 75 72 63 65 38
110 111 114 109 109 140 174 170 177 213 274 360 369 397 372 340 278 176 173 136 137 118 93 80 82 85 107 96 80 80 76 79 83 68 70 68 74 49
122 128 131 141 150 155 152 156 169 228 329 327 434 474 452 437 408 329 180 189 174 137 113 117 109 105 93 100 79 82 58 86 90 67 69 73 80 58
131 131 130 124 107 111 152 169 201 204 265 294 367 365 375 418 390 370 288 289 165 149 130 147 166 180 146 110 81 61 81 74 83 58 57 83 88 66
124 134 154 164 169 159 134 119 164 180 243 299 295 312 294 321 338 361 256 253 230 129 168 173 189 145 122 112 66 67 78 70 77 61 72 90 104 89
150 157 163 166 172 174 165 150 152 159 151 219 268 250 266 263 292 307 259 222 196 172 146 130 165 136 126 98 68 72 75 60 73 64 85 111 119 104
149 160 137 140 180 172 167 158 139 156 172 161 160 175 208 201 205 237 239 228 228 190 202 176 161 127 126 85 71 70 60 59 74 81 94 105 107 89
59 93 130 141 152 152 163 152 138 112 139 144 151 171 168 174 150 264 293 251 199 217 173 192 140 154 125 100 69 52 64 88 78 77 88 99 89 96
52 66 136 173 164 142 155 167 171 151 168 202 191 164 117 197 211 246 302 313 323 228 150 199 159 146 128 114 87 86 106 92 81 84 85 103 95 82
127 118 131 152 159 132 119 139 137 109 115 155 187 179 208 188 164 231 171 211 271 221 110 221 172 182 153 139 117 83 87 87 89 76 67 88 103 89
153 132 112 84 88 86 91 75 70 72 190 179 166 189 177 203 214 200 217 195 167 171 147 167 136 172 176 178 131 105 92 90 76 62 55 65 87 102
149 114 63 50 52 74 69 66 48 123 229 183 169 172 219 251 276 255 308 272 291 256 204 177 161 141 162 157 126 126 120 66 63 43 48 57 56 76
75 88 77 58 44 49 58 67 75 114 227 179 185 211 255 253 225 243 264 250 248 266 249 212 169 154 155 150 134 139 112 91 65 57 56 42 49 63
80 97 83 73 55 51 57 72 33 123 159 178 230 209 173 212 248 245 256 264 252 247 251 257 175 140 127 113 156 142 125 124 85 64 67 60 56 43
99 92 82 70 44 25 36 49 81 73 151 204 191 213 169 199 218 224 254 218 250 230 268 270 241 220 197 168 141 147 152 145 115 90 93 74 55 48
100 87 80 64 42 13 10 32 78 126 156 197 183 185 179 188 215 224 233 220 228 216 240 274 275 257 228 189 152 133 154 140 128 112 98 80 64 60
120 92 77 53 31 14 -2 7 24 60 117 145 130 154 180 196 223 224 216 222 205 247 275 264 250 219 167 119 135 136 137 152 135 112 103 107 91 85
97 93 74 45 16 5 -6 3 1 21 54 101 122 150 173 173 188 229 213 195 202 209 173 167 181 109 119 160 205 189 169 164 152 126 130 139 120 106
96 81 70 32 16 2 -5 -1 -4 7 39 88 123 141 148 159 179 202 196 205 197 173 164 226 181 154 131 155 200 201 183 186 184 130 141 129 97 78
83 70 60 26 9 -4 -10 4 -4 13 38 72 120 147 174 166 173 196 208 205 190 179 198 193 170 172 165 178 201 207 193 187 176 168 172 131 149 145

GFSNE_con_3kmhel_117.txt.gz
Helicity
96 78 109 127 136 136 137 138 222 172 219 234 311 257 232 299 312 284 216 191 131 133 97 166 204 169 147 136 121 106 99 82 72 58 47 42 37 39
93 72 81 36 84 200 159 166 146 151 172 205 215 227 216 258 246 304 321 246 199 161 139 134 120 128 128 110 98 92 84 86 74 54 42 48 43 42
85 41 -8 56 104 106 128 125 120 148 121 171 282 291 278 302 316 327 313 267 269 193 93 86 80 72 94 102 91 87 83 76 70 62 40 53 37 53
79 115 128 126 114 98 88 99 133 154 183 146 208 256 320 324 379 324 375 418 419 365 180 86 72 71 76 81 83 79 79 81 64 66 39 35 41 58
111 105 102 106 110 120 129 145 161 172 191 195 226 288 360 348 375 430 403 433 389 376 223 79 66 68 68 71 71 80 70 71 60 58 51 32 40 51
118 122 132 141 138 144 155 153 155 172 189 192 247 326 369 384 439 470 458 382 429 444 276 213 200 116 52 86 86 90 73 55 78 63 43 32 42 59
138 142 145 155 156 157 171 172 179 191 204 220 259 332 381 423 316 362 396 375 347 386 376 219 237 157 117 80 126 90 69 56 56 47 33 19 36 63
113 122 124 128 148 144 151 153 155 182 210 244 237 295 265 363 345 405 313 402 381 300 312 293 233 160 125 166 109 78 73 68 47 33 35 18 42 75
95 101 108 105 125 144 156 166 162 138 118 169 206 218 197 259 276 344 339 342 327 318 349 207 196 125 150 133 100 72 72 56 34 37 50 52 70 74
84 91 81 67 82 115 133 145 159 186 192 194 184 177 185 190 237 225 264 346 428 360 266 256 136 115 143 136 102 77 70 44 31 48 63 63 67 82
-23 -29 -7 -3 21 92 131 141 154 197 168 123 102 94 108 92 151 288 273 367 287 326 325 267 80 125 147 134 130 88 64 51 38 56 75 86 82 74
70 51 35 61 80 96 112 106 136 154 183 130 126 85 120 103 115 164 208 280 225 256 184 283 119 175 161 128 116 115 74 53 45 61 81 93 91 83
95 103 100 96 102 98 90 111 103 106 106 125 132 107 108 148 171 181 213 233 270 234 168 273 249 204 181 121 154 120 97 83 60 69 79 96 110 101
116 120 119 101 102 96 90 61 54 83 90 99 113 127 88 112 158 197 202 222 250 219 164 190 205 254 186 139 137 129 96 78 71 78 80 73 92 117
112 86 71 78 74 87 70 54 54 84 78 103 88 111 149 130 129 206 274 318 255 228 211 184 126 121 140 136 121 127 141 69 72 72 61 67 78 95
87 84 68 60 60 70 75 79 121 88 67 71 60 100 138 123 153 186 200 223 227 215 263 194 145 131 136 135 133 120 131 126 74 73 70 68 86 99
82 85 78 78 78 74 66 64 64 96 88 50 118 133 146 109 120 138 154 196 159 195 230 234 252 187 183 121 137 141 139 131 98 95 83 91 88 71
96 96 82 86 89 72 58 49 57 48 69 58 68 99 102 110 102 114 129 152 174 186 204 237 251 284 234 164 147 159 163 170 128 94 94 102 85 67
97 90 89 98 95 74 48 42 50 51 29 28 42 78 89 64 73 80 101 139 148 166 165 208 224 228 249 245 190 155 195 169 135 112 102 107 86 72
74 87 100 97 91 67 46 41 46 25 25 9 23 57 79 75 82 55 104 136 154 187 179 172 171 186 258 281 246 209 175 155 117 115 127 128 124 84
67 75 95 92 80 61 46 43 25 5 20 17 14 33 71 61 53 49 87 92 144 173 158 134 129 195 246 200 217 218 199 126 137 128 129 116 106 97
69 83 88 80 58 51 45 29 5 -12 0 14 13 23 59 69 72 78 105 117 131 154 149 157 141 163 158 234 228 170 176 184 163 151 174 113 91 94
79 96 80 55 45 48 45 12 1 -10 9 18 13 32 71 65 72 87 88 101 156 157 164 173 157 160 168 209 166 147 158 166 192 187 200 172 157 134

GFSNE_con_3kmhel_120.txt.gz
Helicity
79 46 68 83 118 116 111 161 162 89 132 237 236 208 196 219 207 251 255 277 264 194 131 141 198 242 228 195 164 122 85 81 80 64 49 50 37 32
104 99 109 100 105 117 114 99 157 204 214 193 195 186 182 178 192 240 259 279 257 238 222 264 346 296 214 165 149 143 118 87 61 63 67 55 49 36
104 92 69 93 116 80 68 123 129 160 96 133 182 170 194 178 213 237 289 293 320 257 257 313 346 290 235 205 88 101 100 84 64 65 64 67 48 45
174 142 144 112 81 121 139 131 116 116 129 111 162 183 170 187 189 229 281 323 362 358 325 306 303 300 217 135 90 75 78 91 87 71 75 70 50 53
119 121 123 126 123 139 149 155 150 151 137 135 139 160 186 240 236 266 296 304 347 332 289 359 368 266 224 244 108 109 64 64 64 45 61 57 52 67
139 146 147 147 141 140 131 127 129 139 147 157 161 172 189 226 251 268 289 303 310 401 351 399 361 248 239 246 133 132 51 66 62 52 16 51 49 58
126 131 130 134 119 123 133 141 160 170 177 175 179 183 244 281 275 261 321 297 326 365 396 333 284 331 323 229 252 126 42 52 58 50 40 50 60 30
114 131 139 143 160 140 169 181 170 170 183 197 194 189 173 184 183 219 240 368 378 352 384 345 421 353 359 291 227 197 75 49 62 57 36 43 68 42
115 123 129 132 131 149 159 156 149 159 173 178 192 207 199 199 191 249 277 327 296 246 259 345 448 341 386 341 242 155 66 64 41 48 44 47 55 74
57 60 62 69 89 115 91 71 80 91 95 145 181 215 226 204 155 153 176 195 304 313 293 307 387 323 376 329 127 34 32 75 56 83 57 39 49 83
29 20 27 13 51 58 91 133 124 96 106 112 124 137 137 152 135 145 240 268 219 208 292 305 233 328 305 264 132 66 91 73 74 83 17 37 78 98
48 57 82 108 99 102 127 147 159 150 144 131 106 110 112 121 105 87 87 190 211 186 205 296 302 288 271 223 178 154 120 82 78 84 40 67 101 97
88 115 115 130 126 114 131 126 117 104 96 108 104 107 106 97 60 49 34 180 236 152 139 225 291 305 224 154 173 182 127 102 87 74 64 77 120 111
116 110 108 100 112 86 90 78 85 104 108 106 107 85 92 79 66 48 63 121 157 128 137 227 125 252 274 241 176 138 117 127 99 94 88 89 105 113
107 90 92 90 71 78 64 69 89 98 94 111 93 79 94 77 52 64 117 145 192 183 198 202 182 188 215 201 178 51 93 100 84 92 112 95 107 111
98 100 97 86 80 78 74 78 92 87 84 92 90 70 88 89 54 84 72 100 110 120 168 154 154 166 186 185 211 126 122 85 102 105 102 109 105 114
85 99 103 98 87 71 66 74 83 82 81 80 64 56 53 81 76 60 34 59 72 61 82 122 155 196 225 152 150 115 79 115 103 118 114 114 108 114
76 80 86 85 75 65 67 68 70 61 67 68 60 39 62 66 45 29 30 38 50 49 94 127 149 195 165 122 174 68 101 103 126 139 126 117 111 86
82 85 85 83 73 70 77 77 65 62 50 51 51 36 49 41 28 11 15 30 38 44 75 116 92 120 134 125 166 155 121 132 171 194 154 119 98 74
95 92 86 74 79 78 86 76 61 54 42 34 34 32 21 21 23 14 17 14 30 86 85 94 83 104 95 107 156 201 199 172 199 198 156 118 132 107
85 82 77 74 73 81 73 63 48 43 25 14 24 18 19 20 23 22 21 2 21 89 80 84 99 128 144 135 192 276 258 206 223 189 123 102 92 96
90 80 70 73 83 74 62 56 48 34 20 20 7 25 29 29 37 27 28 5 4 40 89 124 127 113 146 166 225 318 338 185 233 184 161 138 116 87
82 78 70 79 78 65 63 54 41 30 27 27 22 27 28 31 44 43 26 -4 37 55 111 134 127 133 166 234 209 236 212 184 208 211 239 196 128 97

GFSNE_con_3kmhel_126.txt.gz
Helicity
160 213 226 158 144 164 151 171 162 115 83 82 77 64 48 50 59 96 87 53 49 58 62 73 63 77 101 131 143 106 95 220 262 195 161 119 95 92
217 144 138 117 135 147 138 130 124 111 80 110 102 91 26 40 74 80 70 65 63 68 64 71 89 93 96 110 133 106 155 276 270 203 162 152 125 100
153 135 191 210 166 158 156 141 128 135 127 135 172 158 119 64 58 93 85 136 136 110 99 100 99 96 116 142 136 126 216 268 237 213 173 155 126 113
256 234 219 162 154 158 147 128 108 115 108 110 105 94 100 105 104 118 131 148 155 152 158 162 150 148 138 134 156 191 258 265 238 220 171 166 135 98
178 159 163 166 164 144 112 128 114 117 133 132 111 114 119 123 112 111 118 144 167 143 151 169 174 180 186 159 165 227 265 258 241 234 203 184 151 109
95 101 109 98 91 89 110 118 111 100 104 114 121 117 127 135 154 138 131 159 169 179 175 169 153 146 148 136 127 201 265 303 209 209 207 228 147 144
125 107 93 93 116 105 93 102 96 91 102 112 120 130 124 124 123 134 132 128 138 151 167 204 198 199 166 138 137 188 309 265 221 195 181 155 119 131
102 119 125 136 177 190 190 183 152 129 126 123 114 97 98 108 117 111 109 100 100 105 128 140 129 182 173 115 105 110 191 285 227 182 178 170 152 130
101 120 133 123 133 121 135 137 135 144 149 134 100 91 99 100 119 120 128 130 135 123 129 141 151 155 134 150 106 129 122 167 312 240 180 139 113 118
87 92 107 117 116 100 85 87 100 112 120 123 125 106 114 118 133 145 158 141 140 126 122 153 150 161 132 136 70 75 76 95 257 258 153 102 110 81
105 91 74 93 104 87 64 53 65 76 73 69 64 56 48 41 69 149 162 168 168 130 121 157 138 183 158 109 94 68 37 83 234 217 155 97 80 55
47 41 50 67 45 34 35 37 44 61 87 102 106 99 85 90 74 130 146 159 141 118 83 116 122 114 95 61 46 31 90 54 161 100 116 124 83 87
33 22 38 47 42 53 55 74 81 106 116 124 123 119 114 102 113 115 127 116 104 98 95 105 120 104 81 104 56 46 100 85 189 164 125 95 87 92
19 33 46 25 50 66 86 90 112 144 137 135 132 120 117 101 88 98 97 84 88 77 55 53 103 108 106 100 78 57 62 98 162 171 141 77 65 97
42 39 35 47 63 88 85 115 130 129 137 138 136 116 96 97 88 89 92 71 58 64 51 67 63 99 92 95 72 -3 14 60 124 152 82 74 97 98
51 53 54 65 85 90 104 113 119 130 147 147 131 103 91 90 77 79 85 66 51 54 42 41 43 65 80 61 43 -2 21 9 75 91 74 104 139 69
65 96 102 105 106 103 102 111 115 117 126 125 114 110 99 89 75 80 96 63 37 37 62 52 52 81 74 52 14 17 20 9 35 96 93 129 65 65
107 109 114 122 113 104 100 105 98 103 103 87 95 100 94 83 74 78 78 78 38 32 54 51 51 48 11 51 110 36 46 31 53 94 100 65 89 104
115 114 117 114 109 97 107 99 100 96 76 76 77 83 81 71 58 66 65 55 43 30 46 75 49 -15 -18 10 8 96 28 61 66 145 97 100 113 116
139 127 120 120 114 108 93 88 82 78 76 84 86 82 74 62 57 58 46 41 32 33 64 56 26 -27 -29 -35 8 45 53 89 92 163 130 133 122 114
132 137 128 118 107 94 84 85 76 71 67 74 77 75 72 69 60 63 49 9 18 34 36 31 22 -20 53 65 72 86 80 91 139 167 82 148 156 135
116 118 115 107 106 100 91 85 77 80 78 75 71 73 73 66 60 40 29 24 37 22 28 32 43 51 37 19 59 108 102 128 157 135 134 130 124 123
113 113 113 100 101 101 91 92 92 105 91 69 71 75 72 62 66 50 34 38 25 26 63 67 51 44 36 42 78 93 119 118 142 149 183 181 92 76

GFSNE_con_3kmhel_129.txt.gz
Helicity
116 128 116 124 159 197 233 225 177 188 143 110 109 74 103 124 101 102 85 26 28 72 68 59 36 51 64 78 90 101 89 100 108 89 166 232 188 133
116 110 146 204 143 118 116 143 182 143 140 127 182 174 137 130 103 53 42 26 49 103 114 113 113 112 114 126 138 145 140 112 93 99 154 200 166 132
139 192 254 271 246 249 255 225 230 189 169 151 161 136 93 68 65 45 53 57 58 74 98 109 129 134 152 163 176 189 177 168 142 107 181 163 178 163
265 303 313 203 271 268 213 215 161 141 105 80 42 63 36 69 77 69 88 121 122 140 184 191 192 186 168 153 176 163 165 164 181 145 228 210 175 136
268 207 152 149 186 174 149 144 101 94 75 55 28 51 33 63 87 100 112 120 150 172 177 179 180 202 215 203 243 265 227 185 143 201 266 258 205 180
67 95 96 113 100 104 94 90 82 71 62 52 44 47 57 80 94 90 99 122 122 121 118 131 155 173 182 187 228 261 282 241 142 175 251 297 269 217
73 61 97 149 157 149 107 100 101 87 81 84 83 88 88 94 99 104 100 108 121 122 122 126 141 160 153 153 201 205 224 252 208 163 213 242 250 210
109 115 118 124 119 122 123 124 110 83 77 71 75 85 93 95 93 86 90 76 28 20 85 102 122 124 130 173 141 147 127 204 219 171 180 203 135 163
96 94 90 97 105 92 104 106 103 101 98 93 78 78 71 79 98 100 92 90 88 86 83 100 97 134 153 146 107 97 123 106 154 141 137 238 225 191
90 85 77 84 98 93 77 79 85 83 87 103 100 91 93 85 95 102 92 102 120 111 106 134 132 167 131 137 69 59 54 75 67 41 38 224 234 221
89 86 88 94 104 103 81 92 91 90 77 82 76 82 89 89 92 118 109 108 105 111 104 128 133 134 140 101 70 73 39 35 26 -2 67 241 230 175
103 104 88 88 106 96 85 77 93 70 55 64 71 81 91 110 124 141 139 125 124 117 100 132 111 104 117 92 52 17 36 52 54 117 153 202 241 168
104 103 93 103 84 67 51 50 32 44 70 62 73 91 110 126 137 118 119 131 140 136 113 94 99 95 89 56 21 25 36 53 68 132 154 217 158 42
93 73 66 60 55 57 60 38 68 98 81 82 88 99 115 128 143 142 121 117 118 102 84 92 88 78 68 43 33 17 31 54 68 89 150 134 99 76
80 75 75 65 68 80 71 84 103 87 78 80 95 107 116 122 121 121 105 95 88 95 72 65 54 51 47 47 51 58 47 57 59 72 92 74 48 38
86 71 65 72 75 87 94 86 88 85 90 102 104 107 111 115 113 117 104 95 77 94 55 37 38 38 48 52 53 42 61 48 39 39 40 27 58 56
74 97 94 93 100 100 94 82 101 92 96 104 106 106 107 106 101 97 100 84 71 75 76 36 22 36 54 54 42 42 50 32 25 42 42 58 97 109
86 89 101 105 106 110 104 98 96 91 101 101 106 109 105 86 74 75 83 70 56 67 51 39 26 35 42 45 57 32 25 4 -5 29 52 85 130 114
98 87 102 116 122 122 111 113 96 91 81 88 93 92 86 80 63 61 62 63 54 58 45 53 49 53 38 41 20 44 1 1 6 25 65 127 138 140
99 103 105 114 127 127 116 101 82 75 79 84 90 82 76 76 64 57 51 50 62 65 44 51 53 69 49 12 -9 6 11 6 34 74 124 123 118 131
90 101 123 133 135 116 108 91 81 77 76 91 82 85 80 73 58 56 54 23 26 36 32 40 40 -1 38 48 19 11 17 21 60 89 108 106 108 126
112 115 127 127 133 117 103 89 93 102 113 108 87 74 67 63 56 52 50 45 36 44 47 27 23 32 22 10 15 33 27 68 101 93 84 102 126 108
145 144 141 120 134 110 98 123 127 108 114 95 83 68 58 53 56 52 48 45 28 45 14 14 13 27 23 27 43 65 61 78 112 101 126 132 122 44

GFSNE_con_3kmhel_132.txt.gz
Helicity
147 151 143 142 159 164 138 163 147 140 124 198 167 168 203 230 227 195 185 169 160 144 96 34 40 72 78 79 78 87 105 113 127 144 116 124 113 121
129 130 126 136 136 159 176 176 202 167 196 152 227 251 283 277 175 153 136 107 84 75 108 86 89 99 104 95 91 87 102 123 157 156 152 125 119 152
132 103 161 167 239 206 253 289 271 266 170 201 233 235 110 105 122 78 63 63 73 114 137 139 139 126 121 129 135 144 182 204 206 193 177 168 143 109
200 205 252 264 312 351 278 280 231 265 243 216 125 113 89 62 47 21 33 74 114 137 155 142 125 120 141 157 177 188 202 202 200 201 191 168 153 135
207 271 342 287 218 241 237 159 173 132 91 67 58 71 56 41 38 59 70 90 101 110 107 110 133 158 189 183 206 211 199 214 239 228 220 183 141 122
197 116 95 153 162 117 83 114 103 109 100 67 54 38 27 40 46 28 38 50 67 108 122 134 170 164 149 190 196 192 199 251 286 280 241 220 162 179
63 77 40 64 96 109 95 109 112 104 95 86 73 64 44 45 41 36 28 40 58 69 95 96 109 118 150 198 178 213 214 242 244 247 240 204 204 156
84 93 90 90 97 116 126 128 106 81 78 69 68 64 52 40 41 45 54 52 8 45 65 74 109 127 166 175 156 167 138 172 196 187 194 193 206 145
52 54 74 82 91 84 101 103 102 103 84 59 68 65 79 65 87 83 85 77 72 71 74 74 96 101 145 134 137 148 145 145 167 146 128 104 94 132
88 85 87 97 101 93 95 88 80 79 87 81 82 64 65 67 64 69 69 84 75 62 61 68 76 108 130 162 116 129 144 141 117 73 35 18 2 29
102 94 89 90 105 101 79 87 93 97 89 99 110 91 72 65 71 95 90 93 86 79 79 94 82 118 127 122 125 92 108 95 69 72 89 32 13 96
107 103 93 95 110 107 87 92 123 108 89 87 79 77 61 60 83 107 105 99 97 81 76 103 97 89 80 83 63 91 72 44 61 96 117 193 317 345
110 115 107 112 110 106 105 81 63 64 76 64 60 53 61 66 79 86 103 115 108 105 72 95 114 98 81 98 58 97 65 36 31 59 205 144 129 134
103 99 91 97 100 97 95 85 91 92 66 58 52 57 59 70 83 96 110 124 133 109 84 104 127 99 85 78 72 77 56 29 8 55 82 70 66 83
104 97 108 107 113 108 87 91 98 76 61 55 53 56 57 62 81 96 103 116 115 107 114 102 99 77 71 75 84 58 22 43 44 61 74 62 46 25
113 110 110 118 116 108 116 110 94 81 62 59 63 57 58 74 86 108 109 113 101 107 128 87 72 66 55 44 44 43 45 33 46 64 56 -7 -24 -15
102 118 127 126 124 117 117 102 91 91 88 81 70 68 77 89 92 107 96 85 81 75 79 97 75 55 43 34 34 47 42 43 45 39 -19 -36 -6 23
125 120 112 115 114 114 119 115 111 110 94 86 80 73 78 85 94 93 90 71 61 71 70 65 78 54 33 36 45 45 44 32 -16 -34 -25 -5 31 69
146 129 126 123 119 130 137 133 137 124 104 87 79 82 82 87 81 78 66 57 56 61 80 63 64 48 30 39 36 52 27 -17 -29 -18 18 42 70 155
152 142 138 140 144 151 150 155 142 125 106 81 87 94 96 80 70 66 61 53 56 46 39 45 67 56 60 35 33 11 -1 -32 -20 10 61 82 134 200
155 172 152 150 152 162 166 157 127 114 89 97 96 101 99 71 63 58 51 30 27 34 27 45 41 13 53 42 40 -6 -9 13 -12 22 75 66 108 135
142 156 157 152 150 160 157 141 131 112 119 109 117 112 90 73 60 52 48 48 47 35 22 45 28 38 41 5 2 -1 -1 24 35 34 54 72 88 117
124 141 157 157 159 148 148 137 130 119 132 136 128 111 98 75 59 55 47 47 35 32 27 44 35 8 -0 -1 -5 14 15 31 45 31 73 107 91 55

GFSNE_con_3kmhel_135.txt.gz
Helicity
101 102 130 124 142 151 166 169 141 107 115 119 149 235 246 250 306 290 324 285 262 224 154 147 144 124 103 55 42 47 56 58 74 74 87 107 107 107
113 106 127 137 135 137 135 133 142 145 132 169 205 219 286 298 365 319 268 231 146 142 121 112 107 100 68 41 48 64 72 73 84 97 122 129 155 148
171 164 145 147 152 180 187 209 231 214 180 256 299 397 318 311 258 180 45 68 76 123 118 126 114 121 123 116 125 120 110 111 110 117 119 138 154 171
126 153 196 198 248 264 246 298 337 291 260 256 271 239 162 81 63 15 70 79 101 104 101 117 124 120 105 122 124 116 121 130 136 126 135 148 168 168
160 165 172 184 243 255 268 237 223 247 137 138 91 91 39 24 23 63 69 73 80 76 88 108 129 137 116 105 95 122 134 147 143 132 144 140 134 131
160 174 187 190 138 137 162 144 84 110 65 94 103 105 93 69 46 28 42 54 99 114 99 111 124 101 107 131 124 128 139 148 158 151 152 150 141 141
134 150 178 166 97 90 91 109 98 117 111 122 120 112 102 82 70 57 44 51 86 54 78 98 101 139 150 154 142 160 174 157 149 155 150 142 132 124
86 105 102 100 93 150 135 145 115 83 81 77 87 89 82 80 63 57 63 58 36 63 50 101 77 111 129 130 127 150 141 159 172 165 160 146 118 101
87 89 97 89 93 87 100 95 93 95 85 47 64 54 45 18 43 39 36 43 44 45 43 35 64 81 104 123 149 143 162 193 168 137 125 109 70 43
78 70 71 64 54 57 60 62 59 45 51 45 42 46 53 57 49 55 61 57 53 53 48 41 60 83 101 121 104 145 162 147 133 118 111 101 56 19
70 72 80 87 95 91 86 91 90 82 80 103 92 74 69 72 66 68 68 66 58 61 84 54 51 69 69 86 68 103 125 119 124 121 108 84 105 124
82 79 78 76 88 90 69 57 70 60 75 85 91 85 73 67 90 63 57 62 59 13 63 86 75 67 9 52 101 119 124 102 125 90 76 131 138 118
81 80 72 84 99 91 87 64 75 78 90 80 71 65 62 59 59 58 52 52 56 74 51 85 96 93 86 88 96 107 79 110 91 75 78 76 105 122
91 86 81 85 94 100 99 104 125 109 86 75 67 53 50 52 55 59 58 57 55 48 56 81 112 91 90 84 96 105 77 67 57 58 60 52 71 90
93 77 85 97 106 103 96 120 125 110 90 76 59 40 34 42 41 52 55 66 64 72 97 122 115 90 96 102 96 83 47 42 51 44 48 43 50 52
101 107 117 129 135 122 134 137 115 102 86 70 56 52 60 72 71 86 98 100 97 99 84 102 100 100 102 89 73 62 35 26 51 40 44 51 43 33
109 102 109 118 133 139 130 128 110 95 96 91 82 76 73 74 69 84 95 95 88 95 93 124 139 101 97 77 73 54 32 35 38 32 37 34 22 1
121 130 122 117 123 119 123 127 121 127 123 105 94 86 79 69 65 89 93 94 90 79 76 80 110 75 63 45 18 29 31 33 33 20 6 -11 0 11
144 142 126 134 123 116 121 123 125 128 128 131 125 101 97 83 74 87 103 83 71 73 75 71 72 80 66 56 23 40 31 37 15 -31 -44 -29 7 72
146 136 124 120 130 121 122 127 138 146 154 135 123 115 101 91 79 94 94 75 68 64 75 67 66 58 41 29 30 68 22 25 -45 -42 -20 13 41 77
133 130 147 146 140 131 128 143 148 148 136 133 130 111 94 101 96 94 76 34 27 50 54 71 65 15 31 44 36 36 16 -13 -53 -44 19 27 19 77
155 146 141 145 143 157 166 150 139 126 124 123 120 109 108 117 102 78 60 49 55 60 60 64 57 40 41 39 32 17 -15 -28 -12 -11 23 12 26 72
151 140 134 143 167 164 142 134 129 132 146 143 134 135 132 118 90 70 50 50 50 57 47 32 39 32 39 30 -12 -18 -29 -25 -14 8 30 12 33 17

GFSNE_con_3kmhel_138.txt.gz
Helicity
84 107 96 88 98 126 112 115 138 152 113 129 172 255 248 282 360 325 326 334 363 434 293 254 192 186 124 111 101 91 91 67 52 26 14 17 49 76
104 111 130 150 122 122 118 115 139 131 121 165 234 254 338 308 317 270 307 261 254 239 154 134 98 74 79 105 91 79 80 42 17 29 36 40 51 73
149 169 192 167 147 144 140 160 191 168 152 217 250 323 334 341 259 237 154 236 180 98 103 64 47 94 100 106 92 75 49 46 77 81 85 81 66 68
90 100 96 88 134 158 162 208 181 192 187 216 288 309 192 159 123 62 70 -30 -25 32 52 82 107 142 135 116 73 70 86 100 85 92 88 83 85 75
116 131 152 150 160 159 172 183 195 198 195 184 196 150 115 93 59 72 49 23 54 108 120 165 172 135 114 92 92 88 103 100 77 68 75 83 82 74
161 159 141 130 127 125 128 146 141 102 111 81 70 33 85 86 55 31 50 66 86 88 95 128 132 119 121 116 127 124 111 102 102 94 89 94 98 83
143 151 131 145 165 149 108 81 78 40 66 62 63 83 81 71 59 53 45 68 93 73 85 96 99 118 130 129 120 118 127 111 106 124 140 119 107 103
78 62 81 93 93 94 77 92 72 55 108 92 91 101 84 67 49 44 41 39 45 34 39 81 69 105 129 134 147 158 135 124 164 146 121 117 116 107
80 74 65 56 70 71 88 94 100 104 86 54 57 48 44 39 52 65 62 57 56 62 45 59 75 92 103 134 165 139 134 166 152 135 143 145 125 126
66 72 80 73 66 68 63 66 63 57 48 38 28 17 14 15 13 31 43 41 45 45 59 55 66 72 105 138 117 103 127 174 137 131 143 123 158 134
69 72 73 68 70 72 67 64 57 55 63 76 69 62 67 64 69 71 52 46 42 62 54 41 39 63 81 113 114 91 167 134 131 121 121 113 85 116
78 71 66 56 60 70 64 65 76 61 62 62 61 63 68 73 101 79 56 46 26 1 12 56 49 30 -22 78 113 134 128 102 141 112 111 112 91 69
77 69 56 59 70 67 72 56 66 66 82 86 85 85 88 88 74 70 65 55 41 40 23 53 61 69 77 76 105 126 78 111 113 97 96 111 93 86
84 75 68 61 75 80 82 74 114 108 95 91 89 86 79 66 73 69 58 57 45 18 11 28 73 65 77 81 94 111 94 90 82 78 75 67 57 52
92 79 77 93 107 98 85 115 122 107 102 99 93 76 65 65 70 71 65 78 65 49 63 88 82 88 91 75 101 100 82 75 61 58 55 56 62 73
100 108 106 110 118 115 124 123 109 105 100 98 97 86 88 96 99 105 103 92 80 94 113 116 104 98 88 100 97 86 72 56 46 52 38 52 61 58
141 133 118 101 90 105 106 104 110 110 109 106 116 117 118 125 120 123 105 91 87 87 113 140 129 106 97 74 88 86 54 47 38 32 17 33 76 54
152 149 133 119 133 129 116 118 121 118 118 118 118 127 132 129 119 124 104 91 80 84 101 104 97 69 86 67 65 67 42 32 37 23 19 35 64 55
157 163 161 156 152 135 115 112 124 120 112 115 117 137 134 118 103 92 95 95 96 102 103 104 71 54 49 54 54 24 70 62 34 18 17 32 18 67
180 168 156 150 146 136 111 124 114 120 112 110 130 143 132 108 101 87 98 117 100 80 88 93 85 62 46 45 73 89 40 50 40 17 4 -9 22 50
179 170 152 151 147 140 118 117 117 120 121 130 143 138 121 113 92 103 115 73 48 60 55 80 85 17 47 55 49 46 27 2 -4 -11 -20 1 38 46
168 164 153 156 151 140 126 119 125 127 120 127 122 123 114 113 115 112 107 82 68 68 76 89 75 56 47 48 47 44 20 -0 -19 -30 3 49 70 80
174 176 175 168 156 143 141 123 133 130 136 146 135 126 124 134 143 122 92 64 54 56 57 53 62 54 49 54 26 30 -7 -16 -9 -8 20 16 12 26